     2              OBSERVATION DATA    GPS                 RINEX VERSION / TYPE
ASHTORIN CICESE 05 - JUL - 01 12:56                         PGM / RUN BY / DATE
                                                            COMMENT
BAJA CALIFORNIA-SONORA 2001                                 COMMENT
Original Marker Name: GUAD                                  COMMENT
Campaign Name: Northern Baja 2001                           COMMENT
4-Character Station Name: GUAD                              COMMENT
6-Character Antenna Code: DMRCHT                            COMMENT
Vertical Measurement Point: BCR                             COMMENT
Vertical Offset to Rinex Ref. Point: 0.0348                 COMMENT
Radial Measurement Point: ECF                               COMMENT
Radial Offset to Rinex Ref. Point: 0.1897                   COMMENT
Antenna Height from Field Measurement: 1.3601 m             COMMENT
Additional Antenna Identification Info.:                    COMMENT
Turborogue and Ashtech Choke Ring                           COMMENT
Original XYZ: -2648976.0568 -4920151.4636 3061694.7471      COMMENT
New XYZ position is based on association with SCEC monument COMMENT
D5S5Z3N7+0011. Position of that monument is believed to be  COMMENT
valid to within 1 m horizontally; vertical accuracy         COMMENT
should be no worse than 3-times this value.                 COMMENT
                                                            COMMENT
Revised Rinex header created by UCSD GPS archive for        COMMENT
GSAC on 30-Nov-2001 (2001:334) 23:59:03 GMT                 COMMENT
For assistance contact dagnew@ucsd.edu                      COMMENT
or anderson@python.ucsd.edu                                 COMMENT
                                                            COMMENT
ISLA GUADALUPE (MELPOMENE BAY)                              MARKER NAME
30622                                                       MARKER NUMBER
JGG CICESE (ENSENADA)                                       OBSERVER / AGENCY
773 ASHTECH Z-XII3 CC001D0                                  REC # / TYPE / VERS
002 DORNE-MARGOL. TYPE T                                    ANT # / TYPE
 -2648786.5996 -4921527.4371  3062786.3360                  APPROX POSITION XYZ
        1.3120        0.0000        0.0000                  ANTENNA: DELTA H/E/N
     1     1     0                                          WAVELENGTH FACT L1/2
     7    L1    L2    C1    P1    P2    D1    D2            # / TYPES OF OBSERV
    30                                                      INTERVAL
  2001     1    21     0     0   30.000000                  TIME OF FIRST OBS
  2001     1    21     1     6   30.000000                  TIME OF LAST OBS
                                                            END OF HEADER
 01  1 21  0  0 30.0000000  0  9  9 10  5  4  2  7 24 30  6          0.000000000
 -17260936.310 9 -13426391.13048  21855475.068    21855474.6404   21855482.6784
        -0.000          -0.000
  -9268114.697 9  -7209158.18146  23556732.840    23556731.6154   23556743.0524
        -0.000          -0.000
 -21901893.937 9 -17051551.72148  21139726.664    21139725.8524   21139733.5314
        -0.000          -0.000
 -16299157.992 9 -12683706.22348  21798641.003    21798640.8354   21798648.5374
        -0.000          -0.000
  -4185353.342 8  -3239496.19545  24815711.853    24815710.8014   24815724.1664
        -0.000          -0.000
  -2053518.446 8  -1569297.55945  24463937.737    24463936.8894   24463947.9014
        -0.000          -0.000
 -24203846.075 9 -17542368.51649  20414237.771    20414237.2884   20414244.9444
        -0.000          -0.000
 -11231297.741 9  -8730001.18846  23440220.384    23440220.2434   23440230.3244
        -0.000          -0.000
  -4566608.331 8  -3316126.24345  24907898.289    24907897.9414   24907912.8664
        -0.000          -0.000
 01  1 21  0  1  0.0000000  0  9  9 10  5  4  2  7 24 30  6         -0.000005357
 -17197909.494 9 -13377279.35448  21867468.682    21867468.2574   21867476.3414
        -0.000          -0.000
  -9361932.943 9  -7282263.15746  23538879.682    23538878.6154   23538889.8254
        -0.000          -0.000
 -21963883.034 9 -17099854.87048  21127930.530    21127929.6994   21127937.3684
        -0.000          -0.000
 -16216540.422 9 -12619328.91948  21814362.675    21814362.5414   21814370.1304
        -0.000          -0.000
  -4091845.563 8  -3166633.02945  24833505.802    24833504.7124   24833517.8924
        -0.000          -0.000
  -1993207.519 8  -1522302.15445  24475414.261    24475413.3274   24475425.0474
        -0.000          -0.000
 -24185513.302 9 -17528083.22249  20417726.367    20417725.8834   20417733.5244
        -0.000          -0.000
 -11325915.911 9  -8803729.48046  23422215.058    23422214.9494   23422224.8464
        -0.000          -0.000
  -4628329.672 8  -3364220.54745  24896152.865    24896152.3444   24896167.3074
        -0.000          -0.000
 01  1 21  0  1 30.0000000  0  9  9 10  5  4  2  7 24 30  6         -0.000000032
 -17134509.102 9 -13327876.48748  21879533.368    21879532.9454   21879541.0294
        -0.000          -0.000
  -9455712.241 9  -7355337.73046  23521033.746    23521032.7384   23521044.1404
        -0.000          -0.000
 -22025596.624 9 -17147943.33048  21116186.761    21116185.9384   21116193.6394
        -0.000          -0.000
 -16133633.415 9 -12554726.09148  21830139.321    21830139.1894   21830146.7604
        -0.000          -0.000
  -3998137.072 8  -3093613.43545  24851337.891    24851336.9594   24851350.0354
        -0.000          -0.000
  -1932905.004 8  -1475313.14045  24486889.581    24486888.7704   24486900.0874
        -0.000          -0.000
 -24166678.782 9 -17513406.95149  20421310.433    20421309.9514   20421317.5914
        -0.000          -0.000
 -11420472.120 9  -8877409.49146  23404221.438    23404221.2864   23404231.2464
        -0.000          -0.000
  -4690004.659 8  -3412278.70345  24884416.500    24884416.0394   24884430.8504
        -0.000          -0.000
 01  1 21  0  2  0.0000000  0  9  9 10  5  4  2  7 24 30  6         -0.000000032
 -17070738.220 9 -13278184.92248  21891668.578    21891668.1634   21891676.2334
        -0.000          -0.000
  -9549449.944 9  -7428379.89546  23503195.931    23503194.9764   23503206.2294
        -0.000          -0.000
 -22087032.912 9 -17195815.71448  21104495.779    21104494.9334   21104502.6034
        -0.000          -0.000
 -16050439.987 9 -12489900.07748  21845970.567    21845970.4704   21845978.0894
        -0.000          -0.000
  -3904229.833 8  -3020438.94245  24869207.857    24869207.2664   24869220.1504
        -0.000          -0.000
  -1872610.542 9  -1428330.58645  24498363.255    24498362.4564   24498374.1284
        -0.000          -0.000
 -24147344.043 9 -17498340.90549  20424989.675    20424989.2044   20424996.8584
        -0.000          -0.000
 -11514964.730 9  -8951039.96946  23386239.878    23386239.8534   23386249.7254
        -0.000          -0.000
  -4751634.269 8  -3460301.51245  24872688.518    24872687.8574   24872702.9454
        -0.000          -0.000
 01  1 21  0  2 30.0000000  0  9  9 10  5  4  2  7 24 30  6         -0.000000031
 -17006599.872 9 -13228207.02348  21903873.732    21903873.3344   21903881.3894
        -0.000          -0.000
  -9643143.162 9  -7501387.37846  23485366.615    23485365.5104   23485376.8114
        -0.000          -0.000
 -22148189.771 9 -17243470.36748  21092857.982    21092857.1394   21092864.8284
        -0.000          -0.000
 -15966963.173 9 -12424853.25448  21861855.586    21861855.5424   21861863.2184
        -0.000          -0.000
  -3810125.098 8  -2947110.63445  24887115.500    24887114.7594   24887128.0374
        -0.000          -0.000
  -1812324.358 8  -1381354.28945  24509835.909    24509834.8364   24509846.1304
        -0.000          -0.000
 -24127510.979 9 -17482886.55149  20428763.740    20428763.2724   20428770.9384
        -0.000          -0.000
 -11609391.868 9  -9024619.41446  23368270.803    23368270.8224   23368280.6364
        -0.000          -0.000
  -4813219.131 9  -3508289.49645  24860969.130    24860968.5504   24860983.0804
        -0.000          -0.000
 01  1 21  0  3  0.0000000  0  9  9 10  5  4  2  7 24 30  6         -0.000000008
 -16942107.538 9 -13177953.29048  21916146.205    21916145.8084   21916153.8864
        -0.000          -0.000
  -9736799.840 9  -7574366.38746  23467544.170    23467543.1694   23467554.4354
        -0.000          -0.000
 -22209075.866 9 -17290914.02848  21081271.667    21081270.8604   21081278.5294
        -0.000          -0.000
 -15883216.804 9 -12359596.37448  21877792.044    21877791.9904   21877799.5194
        -0.000          -0.000
  -3715835.745 8  -2873638.37945  24905058.366    24905057.4774   24905070.4434
        -0.000          -0.000
  -1752056.721 8  -1334392.57745  24521304.305    24521303.2784   24521314.6904
        -0.000          -0.000
 -24107192.492 9 -17467053.94349  20432630.189    20432629.7254   20432637.3874
        -0.000          -0.000
 -11703762.637 9  -9098154.94346  23350312.637    23350312.6154   23350322.3974
        -0.000          -0.000
  -4874770.736 9  -3556251.56045  24849256.203    24849255.5584   24849269.8714
        -0.000          -0.000
 01  1 21  0  3 30.0000000  0  9  9 10  5  4  2  7 24 30  6         -0.000000014
 -16877248.302 9 -13127413.66248  21928488.491    21928488.1244   21928496.2104
        -0.000          -0.000
  -9830400.896 9  -7647302.06546  23449732.340    23449731.2994   23449742.5374
        -0.000          -0.000
 -22269673.414 9 -17338132.84948  21069740.301    21069739.4834   21069747.1504
        -0.000          -0.000
 -15799187.873 9 -12294119.34048  21893782.268    21893782.1704   21893789.8494
        -0.000          -0.000
  -3621346.953 8  -2800010.80045  24923038.537    24923037.8604   24923051.7684
        -0.000          -0.000
  -1691791.80217  -1287432.89645  24532771.931    24532770.8425   24532782.2364
        -0.000          -0.000
 -24086374.301 9 -17450831.95749  20436591.748    20436591.2924   20436598.9454
        -0.000          -0.000
 -11798059.486 9  -9171632.85246  23332368.438    23332368.3284   23332378.1454
        -0.000          -0.000
  -4936273.936 8  -3604175.92345  24837552.411    24837551.8114   24837565.9544
        -0.000          -0.000
 01  1 21  0  4  0.0000000  0  9  9 10  5  4  2  7 24 30  6         -0.000000016
 -16812024.826 9 -13076590.21048  21940900.127    21940899.7614   21940907.8564
        -0.000          -0.000
  -9923943.608 9  -7720192.29246  23431931.684    23431930.5724   23431941.6984
        -0.000          -0.000
 -22329980.679 9 -17385125.47548  21058264.188    21058263.3884   21058271.0244
        -0.000          -0.000
 -15714879.503 9 -12228424.53548  21909825.649    21909825.5344   21909833.1814
        -0.000          -0.000
  -3526661.151 9  -2726229.70144  24941057.199    24941056.3654   24941069.1884
        -0.000          -0.000
  -1631529.560 8  -1240475.34645  24544239.181    24544238.7084   24544249.8204
        -0.000          -0.000
 -24065057.833 9 -17434221.70349  20440648.142    20440647.6744   20440655.3244
        -0.000          -0.000
 -11892280.570 9  -9245051.73446  23314438.677    23314438.5704   23314448.3044
        -0.000          -0.000
  -4997729.405 8  -3652063.06145  24825857.694    24825857.0474   24825871.1624
        -0.000          -0.000
 01  1 21  0  4 30.0000000  0  9  9 10  5  4  2  7 24 30  6         -0.000000018
 -16746442.261 9 -13025486.94648  21953380.127    21953379.7414   21953387.8424
        -0.000          -0.000
 -10017427.241 9  -7793036.45346  23414142.192    23414141.0784   23414152.2484
        -0.000          -0.000
 -22389997.822 9 -17431892.03848  21046843.275    21046842.4644   21046850.0974
        -0.000          -0.000
 -15630296.530 9 -12162515.75148  21925921.328    21925921.2214   21925928.7744
        -0.000          -0.000
  -3431781.326 8  -2652297.12144  24959111.632    24959110.7514   24959124.2684
        -0.000          -0.000
  -1571271.624 8  -1193521.26045  24555705.823    24555705.2694   24555716.8444
        -0.000          -0.000
 -24043247.143 9 -17417226.34749  20444798.576    20444798.1014   20444805.7634
        -0.000          -0.000
 -11986426.364 9  -9318411.99046  23296523.405    23296523.2624   23296532.8064
        -0.000          -0.000
  -5059140.034 8  -3699915.26645  24814171.326    24814170.6784   24814184.9754
        -0.000          -0.000
 01  1 21  0  5  0.0000000  0  9  9 10  5  4  2  7 24 30  6         -0.000000018
 -16680503.845 9 -12974106.39848  21965927.855    21965927.4554   21965935.5324
        -0.000          -0.000
 -10110849.281 9  -7865832.65646  23396364.392    23396363.2954   23396374.3694
        -0.000          -0.000
 -22449723.196 9 -17478431.24048  21035477.828    21035477.0524   21035484.7014
        -0.000          -0.000
 -15545442.636 9 -12096395.88148  21942068.514    21942068.4724   21942076.0534
        -0.000          -0.000
  -3336710.544 8  -2578216.24945  24977203.262    24977202.2914   24977216.3494
        -0.000          -0.000
  -1511018.607 8  -1146570.82345  24567172.096    24567171.3704   24567182.7534
        -0.000          -0.000
 -24020944.255 9 -17399847.45549  20449042.649    20449042.1934   20449049.8364
        -0.000          -0.000
 -12080495.480 9  -9391712.45546  23278622.528    23278622.3664   23278631.9274
        -0.000          -0.000
  -5120507.102 8  -3747733.50845  24802493.255    24802492.6934   24802507.0264
        -0.000          -0.000
 01  1 21  0  5 30.0000000  0  9  9 10  5  4  2  7 24 30  6         -0.000000014
 -16614213.333 9 -12922451.48948  21978542.571    21978542.1624   21978550.1934
        -0.000          -0.000
 -10204207.495 9  -7938579.13546  23378598.837    23378597.7044   23378608.6644
        -0.000          -0.000
 -22509155.703 9 -17524742.23448  21024168.223    21024167.4024   21024175.0214
        -0.000          -0.000
 -15460321.478 9 -12030067.74348  21958266.505    21958266.4584   21958274.0044
        -0.000          -0.000
  -3241451.652 8  -2503988.60454  24995330.374    24995328.7834          0.0005
        -0.000          -0.000
  -1450770.802 8  -1099624.59445  24578636.640    24578635.8734   24578647.5364
        -0.000          -0.000
 -23998152.157 9 -17382087.36349  20453379.836    20453379.3704   20453387.0134
        -0.000          -0.000
 -12174486.795 9  -9464952.28546  23260736.232    23260736.1684   23260745.8954
        -0.000          -0.000
  -5181831.736 8  -3795518.69845  24790823.335    24790822.6814   24790837.3574
        -0.000          -0.000
 01  1 21  0  6  0.0000000  0  9  9 10  5  4  2  7 24 30  6         -0.000000016
 -16547574.108 9 -12870524.85248  21991223.634    21991223.2034   21991231.2384
        -0.000          -0.000
 -10297499.575 9  -8011274.06846  23360845.661    23360844.5744   23360855.5004
        -0.000          -0.000
 -22568293.895 9 -17570823.89448  21012914.567    21012913.7534   21012921.3734
        -0.000          -0.000
 -15374936.582 9 -11963534.11247  21974514.713    21974514.6194   21974522.2504
        -0.000          -0.000
  -3146005.211 9  -2429614.83745  25013493.303    25013492.0684   25013504.9124
        -0.000          -0.000
  -1390528.808 8  -1052682.73845  24590100.699    24590099.7084   24590110.6854
        -0.000          -0.000
 -23974873.332 9 -17363948.00849  20457809.631    20457809.1634   20457816.8094
        -0.000          -0.000
 -12268399.005 9  -9538130.52646  23242865.370    23242865.2794   23242874.8684
        -0.000          -0.000
  -5243115.545 8  -3843272.11545  24779161.192    24779160.7444   24779175.2234
        -0.000          -0.000
 01  1 21  0  6 30.0000000  0  9  9 10  5  4  2  7 24 30  6         -0.000000017
 -16480586.644 9 -12818326.86148  22003970.955    22003970.5084   22003978.5394
        -0.000          -0.000
 -10390720.270 9  -8083913.39946  23343106.271    23343105.2154   23343116.0114
        -0.000          -0.000
 -22627133.459 9 -17616672.85648  21001717.682    21001716.8844   21001724.4944
        -0.000          -0.000
 -15289288.551 9 -11896795.42947  21990813.074    21990812.8874   21990820.5974
        -0.000          -0.000
  -3050371.033 7  -2355094.68445  25031691.806    25031690.5724   25031702.7734
        -0.000          -0.000
  -1330289.991 9  -1005743.49845  24601563.174    24601562.4814   24601574.5264
        -0.000          -0.000
 -23951107.271 9 -17345428.99149  20462332.155    20462331.6634   20462339.2944
        -0.000          -0.000
 -12362228.026 9  -9611243.90846  23225010.271    23225010.0514   23225019.6694
        -0.000          -0.000
  -5304356.938 9  -3890992.49245  24767507.291    24767506.8724   24767521.0184
        -0.000          -0.000
 01  1 21  0  7  0.0000000  0  9  9 10  5  4  2  7 24 30  6         -0.000000017
 -16413254.247 9 -12765860.09648  22016783.920    22016783.4484   22016791.5204
        -0.000          -0.000
 -10483866.713 9  -8156494.88246  23325381.087    23325379.9164   23325390.5904
        -0.000          -0.000
 -22685672.571 9 -17662287.69648  20990578.057    20990577.2364   20990584.8364
        -0.000          -0.000
 -15203380.721 9 -11829854.29347  22007160.836    22007160.7104   22007168.3274
        -0.000          -0.000
  -2954551.810 8  -2280430.23845  25049925.637    25049924.5474   25049935.8934
        -0.000          -0.000
  -1270054.491 9   -958806.74545  24613026.217    24613025.4864   24613036.5944
        -0.000          -0.000
 -23926855.552 9 -17326531.53649  20466947.131    20466946.6384   20466954.2454
        -0.000          -0.000
 -12455972.288 9  -9684291.21246  23207170.988    23207170.8104   23207180.5154
        -0.000          -0.000
  -5365556.579 8  -3938680.35945  24755861.306    24755860.8944   24755874.7504
        -0.000          -0.000
 01  1 21  0  7 30.0000000  0  8  9 10  5  4  7 24 30  6            -0.000000017
 -16345580.047 9 -12713126.98648  22029661.958    22029661.4934   22029669.5554
        -0.000          -0.000
 -10576936.253 9  -8229016.42146  23307670.390    23307669.2074   23307679.9774
        -0.000          -0.000
 -22743909.595 9 -17707667.14848  20979495.889    20979495.0384   20979502.6244
        -0.000          -0.000
 -15117216.058 9 -11762713.04447  22023557.444    22023557.3184   22023565.0434
        -0.000          -0.000
  -1209822.216 8   -911872.45445  24624488.148    24624487.1434   24624498.0844
        -0.000          -0.000
 -23902120.699 9 -17307257.61949  20471654.003    20471653.5194   20471661.1234
        -0.000          -0.000
 -12549629.922 9  -9757271.10246  23189348.541    23189348.4484   23189357.8204
        -0.000          -0.000
  -5426715.483 8  -3986336.46845  24744222.928    24744222.3834   24744236.1884
        -0.000          -0.000
 01  1 21  0  8  0.0000000  0  8  9 10  5  4  7 24 30  6            -0.000000017
 -16277566.207 9 -12660129.21948  22042604.614    22042604.1334   22042612.2024
        -0.000          -0.000
 -10669925.340 9  -8301475.31546  23289975.006    23289973.8784   23289984.4164
        -0.000          -0.000
 -22801841.848 9 -17752809.11549  20968471.699    20968470.8704   20968478.4364
        -0.000          -0.000
 -15030796.956 9 -11695373.53347  22040002.435    22040002.3344   22040010.0774
        -0.000          -0.000
  -1149592.430 8   -864940.25545  24635949.514    24635948.5204   24635960.2674
        -0.000          -0.000
 -23876904.000 9 -17287608.23649  20476452.560    20476452.0874   20476459.6624
        -0.000          -0.000
 -12643198.788 9  -9830181.76946  23171543.026    23171542.7754   23171552.1984
        -0.000          -0.000
  -5487833.590 8  -4033960.80345  24732592.264    24732591.6334   24732605.3214
        -0.000          -0.000
 01  1 21  0  8 30.0000000  0  8  9 10  5  4  7 24 30  6            -0.000000018
 -16209216.999 9 -12606870.12448  22055611.064    22055610.5884   22055618.6734
        -0.000          -0.000
 -10762831.976 9  -8373869.95246  23272295.328    23272294.2674   23272304.8384
        -0.000          -0.000
 -22859468.613 9 -17797713.03849  20957505.658    20957504.8314   20957512.3624
        -0.000          -0.000
 -14944127.635 9 -11627839.03547  22056495.133    22056494.9964   22056502.7314
        -0.000          -0.000
  -1089366.171 8   -818010.74545  24647409.993    24647409.3924   24647420.6054
        -0.000          -0.000
 -23851208.844 9 -17267586.02349  20481342.174    20481341.7124   20481349.2894
        -0.000          -0.000
 -12736678.392 9  -9903022.83746  23153754.097    23153753.9104   23153763.5454
        -0.000          -0.000
  -5548912.968 8  -4081554.93045  24720969.136    24720968.6304   24720982.3384
        -0.000          -0.000
 01  1 21  0  9  0.0000000  0  9  9 10  5  4  2  7 24 30  6         -0.000000017
 -16140533.959 9 -12553350.90848  22068681.042    22068680.5504   22068688.6454
        -0.000          -0.000
 -10855651.854 9  -8446197.00046  23254632.079    23254631.1544   23254641.5124
        -0.000          -0.000
 -22916786.150 9 -17842376.00549  20946598.410    20946597.6124   20946605.1444
        -0.000          -0.000
 -14857209.390 9 -11560110.59047  22073035.153    22073034.9564   22073042.7764
        -0.000          -0.000
   -712792.860 8   -571250.91352         0.000           0.0004          0.0005
        -0.000          -0.000
  -1029141.600 8   -771082.56645  24658870.073    24658869.5104   24658880.9894
        -0.000          -0.000
 -23825035.422 9 -17247191.14749  20486322.810    20486322.3444   20486329.9204
        -0.000          -0.000
 -12830064.676 9  -9975791.27546  23135983.381    23135983.2024   23135992.5424
        -0.000          -0.000
  -5609952.616 8  -4129118.09545  24709353.455    24709352.8724   24709366.6364
        -0.000          -0.000
 01  1 21  0  9 30.0000000  0  8  9 10  5  4  7 24 30  6            -0.000000017
 -16071520.357 9 -12499574.10748  22081813.912    22081813.4194   22081821.5514
        -0.000          -0.000
 -10948382.517 9  -8518454.53346  23236985.817    23236984.8704   23236995.2614
        -0.000          -0.000
 -22973793.269 9 -17886797.08349  20935750.287    20935749.4624   20935756.9904
        -0.000          -0.000
 -14770045.915 9 -11492191.01947  22089622.004    22089621.8334   22089629.4354
        -0.000          -0.000
   -968919.220 9   -724156.11845  24670330.284    24670329.5154   24670340.9374
        -0.000          -0.000
 -23798386.052 9 -17226425.39649  20491393.973    20491393.5144   20491401.0724
        -0.000          -0.000
 -12923356.877 9 -10048486.37546  23118230.414    23118230.1734   23118239.4124
        -0.000          -0.000
  -5670953.997 8  -4176651.42045  24697744.956    24697744.4784   24697758.2754
        -0.000          -0.000
 01  1 21  0 10  0.0000000  0  8  9 10  5  4  7 24 30  6            -0.000000018
 -16002178.766 9 -12445541.73048  22095009.184    22095008.7344   22095016.8804
        -0.000          -0.000
 -11041020.491 9  -8590639.83046  23219357.347    23219356.3154   23219366.7674
        -0.000          -0.000
 -23030487.492 9 -17930974.34849  20924961.688    20924960.8814   20924968.4004
        -0.000          -0.000
 -14682639.580 9 -11424082.24147  22106254.844    22106254.6384   22106262.4124
        -0.000          -0.000
   -908698.242 8   -677230.53045  24681790.292    24681789.3454   24681799.7104
        -0.000          -0.000
 -23771262.253 9 -17205289.96149  20496555.463    20496555.0004   20496562.5734
        -0.000          -0.000
 -13016552.759 9 -10121106.35346  23100495.493    23100495.3804   23100504.8654
        -0.000          -0.000
  -5731917.168 9  -4224154.99145  24686143.887    24686143.3494   24686157.3964
        -0.000          -0.000
 01  1 21  0 10 30.0000000  0  9  9 10  5  4  2  7 24 30  6         -0.000000017
 -15932511.221 9 -12391255.36148  22108266.445    22108266.0264   22108274.1454
        -0.000          -0.000
 -11133561.557 9  -8662749.62546  23201747.171    23201746.2264   23201756.6124
        -0.000          -0.000
 -23086865.604 9 -17974905.29149  20914233.265    20914232.4384   20914239.9984
        -0.000          -0.000
 -14594992.031 9 -11355785.48747  22122933.580    22122933.4024   22122941.1514
        -0.000          -0.000
   -422102.606 9   -502447.77652         0.000           0.0004          0.0005
        -0.000          -0.000
   -848477.324 9   -630305.30445  24693249.998    24693249.0794   24693260.3644
        -0.000          -0.000
 -23743664.701 9 -17183785.37049  20501807.082    20501806.6054   20501814.1764
        -0.000          -0.000
 -13109648.756 9 -10193648.55447  23082779.961    23082779.8244   23082789.1814
        -0.000          -0.000
  -5792841.593 9  -4271628.35445  24674550.265    24674549.6844   24674563.6094
        -0.000          -0.000
 01  1 21  0 11  0.0000000  0  8  9 10  5  4  7 24 30  6            -0.000000017
 -15862522.811 9 -12336718.97448  22121584.840    22121584.3964   22121592.5504
        -0.000          -0.000
 -11226004.958 9  -8734783.31146  23184155.740    23184154.7444   23184165.0904
        -0.000          -0.000
 -23142927.959 9 -18018590.19649  20903564.911    20903564.0844   20903571.5854
        -0.000          -0.000
 -14507108.643 9 -11287304.97547  22139657.228    22139657.0444   22139664.8334
        -0.000          -0.000
   -788258.389 8   -583381.44945  24704709.263    24704708.4684   24704719.6354
        -0.000          -0.000
 -23715597.773 9 -17161915.03249  20507148.033    20507147.5774   20507155.1614
        -0.000          -0.000
 -13202645.370 9 -10266113.33146  23065083.186    23065083.0264   23065092.2304
        -0.000          -0.000
  -5853730.353 9  -4319073.93745  24662963.349    24662962.8564   24662976.7224
        -0.000          -0.000
 01  1 21  0 11 30.0000000  0  8  9 10  5  4  7 24 30  6            -0.000000016
 -15792214.317 9 -12281933.15848  22134964.096    22134963.6844   22134971.8324
        -0.000          -0.000
 -11318345.689 9  -8806736.98246  23166583.796    23166582.7894   23166593.0444
        -0.000          -0.000
 -23198670.512 9 -18062025.89849  20892957.394    20892956.5774   20892964.0554
        -0.000          -0.000
 -14418990.191 9 -11218641.29547  22156425.611    22156425.4364   22156433.2244
        -0.000          -0.000
   -728039.243 9   -536457.44945  24716168.697    24716167.9024   24716178.8534
        -0.000          -0.000
 -23687061.372 9 -17139678.86749  20512578.296    20512577.8384   20512585.4174
        -0.000          -0.000
 -13295538.735 9 -10338497.64646  23047406.126    23047405.8734   23047414.9884
        -0.000          -0.000
  -5914582.034 9  -4366490.62845  24651383.657    24651383.1934   24651396.8264
        -0.000          -0.000
 01  1 21  0 12  0.0000000  0  8  9 10  5  4  7 24 30  6            -0.000000017
 -15721589.197 9 -12226900.63448  22148403.613    22148403.1904   22148411.3464
        -0.000          -0.000
 -11410581.150 9  -8878608.62846  23149031.737    23149030.7694   23149040.9664
        -0.000          -0.000
 -23254091.720 9 -18105211.21249  20882411.078    20882410.2584   20882417.7304
        -0.000          -0.000
 -14330640.093 9 -11149797.08847  22173238.150    22173237.9874   22173245.6464
        -0.000          -0.000
   -667819.979 8   -489533.44045  24727628.067    24727627.1834   24727638.8954
        -0.000          -0.000
 -23658058.343 9 -17117079.09949  20518097.377    20518096.9074   20518104.4994
        -0.000          -0.000
 -13388327.410 9 -10410800.37847  23029749.023    23029748.7974   23029757.8524
        -0.000          -0.000
  -5975397.877 9  -4413879.40845  24639810.694    24639810.2754   24639823.7004
        -0.000          -0.000
 01  1 21  0 12 30.0000000  0  8  9 10  5  4  7 24 30  6            -0.000000016
 -15650649.789 9 -12171623.20748  22161902.962    22161902.5344   22161910.6924
        -0.000          -0.000
 -11502707.679 9  -8950395.37646  23131500.632    23131499.6074   23131509.8944
        -0.000          -0.000
 -23309188.973 9 -18148144.09249  20871926.356    20871925.5664   20871933.0134
        -0.000          -0.000
 -14242060.328 9 -11080773.94747  22190094.364    22190094.1874   22190101.9594
        -0.000          -0.000
   -607599.988 9   -442608.64845  24739087.679    24739086.9764   24739097.5584
        -0.000          -0.000
 -23628589.696 9 -17094116.51049  20523705.065    20523704.6054   20523712.1894
        -0.000          -0.000
 -13481008.685 9 -10483019.44046  23012112.182    23012111.9374   23012121.0274
        -0.000          -0.000
  -6036177.696 9  -4461240.09945  24628244.538    24628244.0724   24628257.3864
        -0.000          -0.000
 01  1 21  0 13  0.0000000  0  8  9 10  5  4  7 24 30  6            -0.000000017
 -15579399.224 9 -12116103.31648  22175461.460    22175461.0584   22175469.2304
        -0.000          -0.000
 -11594722.413 9  -9022095.04546  23113990.642    23113989.6784   23113999.8574
        -0.000          -0.000
 -23363960.506 9 -18190823.16049  20861503.625    20861502.8224   20861510.2444
        -0.000          -0.000
 -14153254.181 9 -11011574.38547  22206993.610    22206993.4484   22207001.1824
        -0.000          -0.000
   -547378.804 8   -395683.11145  24750547.272    24750546.3844   24750558.0004
        -0.000          -0.000
 -23598657.505 9 -17070792.71349  20529400.936    20529400.4924   20529408.0834
        -0.000          -0.000
 -13573580.636 9 -10555153.27146  22994496.067    22994495.8724   22994504.9844
        -0.000          -0.000
  -6096922.439 8  -4508573.46845  24616685.018    24616684.5144   24616697.8044
        -0.000          -0.000
 01  1 21  0 13 30.0000000  0  8  9 10  5  4  7 24 30  6            -0.000000016
 -15507839.265 9 -12060342.34648  22189078.943    22189078.5314   22189086.6814
        -0.000          -0.000
 -11686620.940 9  -9093704.15246  23096502.789    23096501.7754   23096511.9484
        -0.000          -0.000
 -23418402.866 9 -18233245.74049  20851143.584    20851142.7644   20851150.1574
        -0.000          -0.000
 -14064222.989 9 -10942199.49047  22223935.662    22223935.4794   22223943.3584
        -0.000          -0.000
   -487154.763 8   -348755.34745  24762007.080    24762006.1224   24762018.3854
        -0.000          -0.000
 -23568262.266 9 -17047108.11249  20535184.943    20535184.4884   20535192.0894
        -0.000          -0.000
 -13666039.803 9 -10627199.23547  22976901.578    22976901.4224   22976910.5724
        -0.000          -0.000
  -6157631.245 8  -4555878.83445  24605132.313    24605131.9524   24605145.2684
        -0.000          -0.000
 01  1 21  0 14  0.0000000  0  8  9 10  5  4  7 24 30  6            -0.000000016
 -15435974.710 9 -12004344.02348  22202754.320    22202753.8634   22202762.0614
        -0.000          -0.000
 -11778402.014 9  -9165221.75046  23079037.377    23079036.3264   23079046.5184
        -0.000          -0.000
 -23472516.405 9 -18275412.08949  20840846.079    20840845.2834   20840852.6434
        -0.000          -0.000
 -13974971.974 9 -10872653.26947  22240919.597    22240919.4224   22240927.2514
        -0.000          -0.000
   -426929.942 8   -301826.85545  24773467.589    24773466.6354   24773478.4744
        -0.000          -0.000
 -23537408.385 9 -17023066.11949  20541056.238    20541055.8134   20541063.3914
        -0.000          -0.000
 -13758386.345 9 -10699157.45746  22959328.515    22959328.3384   22959337.5024
        -0.000          -0.000
  -6218307.054 9  -4603158.49645  24593585.881    24593585.4764   24593598.8784
        -0.000          -0.000
 01  1 21  0 14 30.0000000  0  9  9 10  5  4  2  7 24 30  6         -0.000000016
 -15363806.124 9 -11948108.79848  22216487.546    22216487.0964   22216495.3344
        -0.000          -0.000
 -11870060.327 9  -9236643.69646  23061595.202    23061594.1904   23061604.3524
        -0.000          -0.000
 -23526296.363 9 -18317318.50849  20830612.037    20830611.2384   20830618.6064
        -0.000          -0.000
 -13885501.348 9 -10802935.95447  22257945.269    22257945.1354   22257952.9654
        -0.000          -0.000
   -561892.968 8    289096.071 1         0.000           0.000           0.000
        -0.000          -0.000
   -366701.558 8   -254895.65545  24784928.913    24784928.0204   24784939.9904
        -0.000          -0.000
 -23506095.841 9 -16998666.73149  20547014.820    20547014.3684   20547021.9624
        -0.000          -0.000
 -13850616.014 9 -10771024.59646  22941777.536    22941777.4584   22941786.5934
        -0.000          -0.000
  -6278947.882 8  -4650410.89545  24582046.008    24582045.6044   24582059.1694
        -0.000          -0.000
 01  1 21  0 15  0.0000000  0  8  9 10  5  4  7 24 30  6            -0.000000016
 -15291338.080 9 -11891640.23148  22230277.737    22230277.2994   22230285.5814
        -0.000          -0.000
 -11961594.315 9  -9307968.73946  23044176.961    23044175.7294   23044185.8964
        -0.000          -0.000
 -23579742.242 9 -18358964.60649  20820441.625    20820440.8194   20820448.1764
        -0.000          -0.000
 -13795815.390 9 -10733050.83947  22275011.923    22275011.8704   22275019.7304
        -0.000          -0.000
   -306470.820 8   -207962.56545  24796390.492    24796389.6564   24796401.3534
        -0.000          -0.000
 -23474327.628 9 -16973912.27849  20553060.129    20553059.6534   20553067.2484
        -0.000          -0.000
 -13942728.224 9 -10842800.24047  22924249.340    22924249.1824   22924258.1464
        -0.000          -0.000
  -6339556.112 8  -4697637.89145  24570512.323    24570511.9394   24570525.5044
        -0.000          -0.000
 01  1 21  0 15 30.0000000  0  8  9 10  5  4  7 24 30  6            -0.000000016
 -15218573.364 9 -11834940.49048  22244124.447    22244124.0034   22244132.3084
        -0.000          -0.000
 -12053000.699 9  -9379194.35246  23026782.818    23026781.6424   23026791.7984
        -0.000          -0.000
 -23632851.931 9 -18400348.73949  20810335.146    20810334.3354   20810341.6774
        -0.000          -0.000
 -13705917.011 9 -10663000.20347  22292119.053    22292118.9474   22292126.8304
        -0.000          -0.000
   -246236.972 9   -161027.15345  24807852.007    24807851.3514   24807862.9974
        -0.000          -0.000
 -23442105.716 9 -16948804.29049  20559191.757    20559191.2984   20559198.8754
        -0.000          -0.000
 -14034720.752 9 -10914482.59146  22906743.545    22906743.3524   22906752.4074
        -0.000          -0.000
  -6400132.259 9  -4744839.91345  24558984.987    24558984.4794   24558997.9604
        -0.000          -0.000
 01  1 21  0 16  0.0000000  0  8  9 10  5  4  7 24 30  6            -0.000000015
 -15145513.209 9 -11778010.53848  22258027.351    22258026.9184   22258035.2434
        -0.000          -0.000
 -12144274.566 9  -9450316.73346  23009413.788    23009412.7454   23009422.7994
        -0.000          -0.000
 -23685621.878 9 -18441468.14149  20800293.292    20800292.4974   20800299.8254
        -0.000          -0.000
 -13615807.211 9 -10592784.81147  22309266.539    22309266.3474   22309274.2844
        -0.000          -0.000
   -185998.442 8   -114087.89145  24819315.282    24819314.4494   24819326.1184
        -0.000          -0.000
 -23409430.665 9 -16923343.20549  20565409.608    20565409.1344   20565416.7284
        -0.000          -0.000
 -14126589.758 9 -10986068.71547  22889261.223    22889261.1744   22889270.2534
        -0.000          -0.000
  -6460675.094 9  -4792016.00345  24547463.993    24547463.4444   24547476.7494
        -0.000          -0.000
 01  1 21  0 16 30.0000000  0  8  9 10  5  4  7 24 30  6            -0.000000015
 -15072162.076 9 -11720853.85548  22271985.681    22271985.2254   22271993.5164
        -0.000          -0.000
 -12235414.547 9  -9521334.77346  22992070.439    22992069.3614   22992079.4064
        -0.000          -0.000
 -23738051.725 9 -18482322.53649  20790316.237    20790315.4144   20790322.7604
        -0.000          -0.000
 -13525490.385 9 -10522408.11447  22326453.223    22326453.1084   22326461.0454
        -0.000          -0.000
   -125756.486 9    -67146.27745  24830778.867    24830777.9504   24830790.1194
        -0.000          -0.000
 -23376306.069 9 -16897531.83049  20571712.988    20571712.5104   20571720.1194
        -0.000          -0.000
 -14218335.071 9 -11057558.46647  22871802.788    22871802.6314   22871811.5754
        -0.000          -0.000
  -6521186.922 9  -4839167.92245  24535949.060    24535948.4664   24535961.5134
        -0.000          -0.000
 01  1 21  0 17  0.0000000  0  8  9 10  5  4  7 24 30  6            -0.000000015
 -14998522.763 9 -11663472.62048  22285998.788    22285998.3344   22286006.6284
        -0.000          -0.000
 -12326417.195 9  -9592245.82046  22974753.167    22974752.0304   22974762.0094
        -0.000          -0.000
 -23790138.947 9 -18522909.94249  20780404.311    20780403.5064   20780410.8234
        -0.000          -0.000
 -13434969.143 9 -10451872.13647  22343678.904    22343678.7934   22343686.7564
        -0.000          -0.000
    -65509.964 8    -20200.79645  24842243.353    24842242.2044   24842252.9024
        -0.000          -0.000
 -23342733.731 9 -16871371.55849  20578101.590    20578101.1174   20578108.7094
        -0.000          -0.000
 -14309953.954 9 -11128949.67246  22854367.926    22854367.7914   22854376.7704
        -0.000          -0.000
  -6581667.957 9  -4886295.86145  24524439.833    24524439.2444   24524451.9534
        -0.000          -0.000
 01  1 21  0 17 30.0000000  0  8  9 10  5  4  7 24 30  6            -0.000000015
 -14924596.710 9 -11605867.94448  22300066.489    22300066.0154   22300074.2904
        -0.000          -0.000
 -12417277.549 9  -9663045.98546  22957462.835    22957461.7304   22957471.6634
        -0.000          -0.000
 -23841880.003 9 -18563227.61549  20770558.304    20770557.4824   20770564.7794
        -0.000          -0.000
 -13344244.378 9 -10381177.55347  22360943.310    22360943.1424   22360951.1044
        -0.000          -0.000
     -5257.483 8     26749.12445  24853709.351    24853708.2454   24853719.7264
        -0.000          -0.000
 -23308714.008 9 -16844862.67649  20584575.317    20584574.8354   20584582.4454
        -0.000          -0.000
 -14401442.693 9 -11200239.53047  22836958.321    22836958.2034   22836966.9594
        -0.000          -0.000
  -6642117.003 9  -4933398.87045  24512936.788    24512936.3374   24512948.6244
        -0.000          -0.000
 01  1 21  0 18  0.0000000  0  8  9 10  5  4  7 24 30  6            -0.000000013
 -14850385.692 9 -11548041.22348  22314188.372    22314187.8994   22314196.2374
        -0.000          -0.000
 -12507991.659 9  -9733732.20547  22940200.419    22940199.3014   22940209.3084
        -0.000          -0.000
 -23893271.562 9 -18603272.95649  20760778.798    20760777.9834   20760785.2694
        -0.000          -0.000
 -13253317.950 9 -10310325.84947  22378246.106    22378245.9734   22378253.9464
        -0.000          -0.000
     55003.126 8     73705.41345  24865176.012    24865175.5674   24865186.7224
        -0.000          -0.000
 -23274247.734 9 -16818005.83849  20591134.000    20591133.5554   20591141.1414
        -0.000          -0.000
 -14492797.947 9 -11271425.27347  22819573.872    22819573.6394   22819582.6984
        -0.000          -0.000
  -6702533.325 9  -4980476.37045  24501439.877    24501439.4774   24501451.7294
        -0.000          -0.000
 01  1 21  0 18 30.0000000  0  8  9 10  5  4  7 24 30  6            -0.000000015
 -14775895.787 9 -11489997.19248  22328363.327    22328362.8864   22328371.2454
        -0.000          -0.000
 -12598559.288 9  -9804304.29547  22922965.888    22922964.7624   22922974.6704
        -0.000          -0.000
 -23944314.833 9 -18643046.90049  20751065.550    20751064.7474   20751072.0494
        -0.000          -0.000
 -13162195.627 9 -10239321.49547  22395586.123    22395585.9984   22395593.9764
        -0.000          -0.000
    115268.308 8    120665.36545  24876644.340    24876643.7994   24876654.9614
        -0.000          -0.000
 -23239340.258 9 -16790805.19849  20597776.644    20597776.2064   20597783.8154
        -0.000          -0.000
 -14584020.914 9 -11342508.05347  22802214.514    22802214.4654   22802223.2024
        -0.000          -0.000
  -6762920.965 8  -5027531.50445  24489948.404    24489947.9834   24489960.3014
        -0.000          -0.000
 01  1 21  0 19  0.0000000  0  8  9 10  5  4  7 24 30  6            -0.000000015
 -14701128.096 9 -11431736.69648  22342591.158    22342590.6964   22342599.0984
        -0.000          -0.000
 -12688975.635 9  -9874758.50847  22905760.143    22905759.0234   22905768.9064
        -0.000          -0.000
 -23995005.876 9 -18682546.38049  20741419.325    20741418.5154   20741425.7834
        -0.000          -0.000
 -13070878.511 9 -10168165.35247  22412963.274    22412963.0694   22412971.0694
        -0.000          -0.000
    175540.745 9    167630.95145  24888113.882    24888113.1884   24888124.1514
        -0.000          -0.000
 -23203991.973 9 -16763261.07049  20604503.246    20604502.7604   20604510.3364
        -0.000          -0.000
 -14675107.583 9 -11413484.57847  22784881.396    22784881.2064   22784889.9844
        -0.000          -0.000
  -6823278.748 8  -5074563.36345  24478462.299    24478461.7554   24478474.5464
        -0.000          -0.000
 01  1 21  0 19 30.0000000  0  8  9 10  5  4  7 24 30  6            -0.000000015
 -14626086.357 9 -11373262.66748  22356871.199    22356870.7014   22356879.0994
        -0.000          -0.000
 -12779237.977 9  -9945092.70247  22888583.694    22888582.5344   22888592.5734
        -0.000          -0.000
 -24045343.319 9 -18721770.32449  20731840.395    20731839.5864   20731846.8864
        -0.000          -0.000
 -12979369.803 9 -10096859.91247  22430376.880    22430376.6844   22430384.6734
        -0.000          -0.000
    235820.050 8    214601.95845  24899584.923    24899584.1874   24899595.2904
        -0.000          -0.000
 -23168205.771 9 -16735375.71649  20611313.148    20611312.6554   20611320.2484
        -0.000          -0.000
 -14766056.713 9 -11484353.85247  22767573.924    22767573.9264   22767583.0234
        -0.000          -0.000
  -6883607.771 8  -5121572.79345  24466981.635    24466981.1624   24466994.1954
        -0.000          -0.000
 01  1 21  0 20  0.0000000  0  8  9 10  5  4  7 24 30  6            -0.000000014
 -14550773.848 9 -11314577.63648  22371202.705    22371202.2394   22371210.6604
        -0.000          -0.000
 -12869343.518 9 -10015304.72947  22871437.151    22871436.0154   22871445.9754
        -0.000          -0.000
 -24095325.593 9 -18760717.50349  20722329.027    20722328.2214   20722335.5174
        -0.000          -0.000
 -12887672.857 9 -10025407.78947  22447826.297    22447826.1334   22447834.0254
        -0.000          -0.000
    296106.242 9    261577.84545  24911056.709    24911055.8044   24911068.0934
        -0.000          -0.000
 -23131983.842 9 -16707150.82649  20618205.952    20618205.4634   20618213.0434
        -0.000          -0.000
 -14856866.263 9 -11555114.55347  22750293.756    22750293.6104   22750302.0074
        -0.000          -0.000
  -6943909.059 9  -5168560.62045  24455506.401    24455505.8464   24455519.1234
        -0.000          -0.000
 01  1 21  0 20 30.0000000  0  8  9 10  5  4  7 24 30  6            -0.000000014
 -14475191.865 9 -11255682.63848  22385585.525    22385585.0424   22385593.5004
        -0.000          -0.000
 -12959287.645 9 -10085390.97447  22854321.239    22854320.1634   22854329.9944
        -0.000          -0.000
 -24144949.144 9 -18799385.16549  20712885.974    20712885.1784   20712892.4494
        -0.000          -0.000
 -12795788.608 9  -9953809.73347  22465311.290    22465311.1284   22465319.0854
        -0.000          -0.000
    356401.33416    308560.67054  24922530.830    24922534.1735          0.0005
        -0.000          -0.000
 -23095326.725 9 -16678586.83549  20625181.530    20625181.0544   20625188.6504
        -0.000          -0.000
 -14947532.626 9 -11625763.50547  22733040.215    22733040.0744   22733048.8934
        -0.000          -0.000
  -7004181.471 9  -5215525.94245  24444036.906    24444036.4054   24444049.5974
        -0.000          -0.000
 01  1 21  0 21  0.0000000  0  8  9 10  5  4  7 24 30  6            -0.000000013
 -14399344.831 9 -11196581.10548  22400018.722    22400018.2804   22400026.7124
        -0.000          -0.000
 -13049068.740 9 -10155350.18347  22837236.387    22837235.3514   22837245.0844
        -0.000          -0.000
 -24194213.282 9 -18837772.76949  20703511.313    20703510.5184   20703517.7674
        -0.000          -0.000
 -12703721.238 9  -9882068.96447  22482831.247    22482831.0014   22482838.9034
        -0.000          -0.000
    416703.91419    355549.24053         0.000           0.0005          0.0005
        -0.000          -0.000
 -23058238.073 9 -16649686.58249  20632239.234    20632238.7684   20632246.3544
        -0.000          -0.000
 -15038054.740 9 -11696300.08947  22715814.440    22715814.3494   22715823.3634
        -0.000          -0.000
  -7064426.977 9  -5262470.32846  24432572.733    24432572.2524   24432585.1384
        -0.000          -0.000
 01  1 21  0 21 30.0000000  0  8  9 10  5  4  7 24 30  6            -0.000000013
 -14323234.965 9 -11137274.75747  22414502.014    22414501.5734   22414509.9754
        -0.000          -0.000
 -13138682.883 9 -10225179.29447  22820183.400    22820182.2964   22820191.9624
        -0.000          -0.000
 -24243115.549 9 -18875878.40249  20694205.490    20694204.6804   20694211.8924
        -0.000          -0.000
 -12611472.911 9  -9810187.20447  22500385.540    22500385.3774   22500393.2564
        -0.000          -0.000
    477015.55218    402544.90553         0.000           0.0005          0.0005
        -0.000          -0.000
 -23020719.438 9 -16620451.27549  20639378.792    20639378.3064   20639385.9094
        -0.000          -0.000
 -15128429.784 9 -11766722.13547  22698616.450    22698616.3254   22698625.0554
        -0.000          -0.000
  -7124645.650 9  -5309393.81046  24421113.631    24421113.0854   24421125.6514
        -0.000          -0.000
 01  1 21  0 22  0.0000000  0  8  9 10  5  4  7 24 30  6            -0.000000013
 -14246864.427 9 -11077765.28747  22429034.891    22429034.4524   22429042.8324
        -0.000          -0.000
 -13228125.490 9 -10294874.73647  22803163.012    22803161.8604   22803171.5804
        -0.000          -0.000
 -24291652.834 9 -18913699.62549  20684969.119    20684968.3144   20684975.5124
        -0.000          -0.000
 -12519045.299 9  -9738165.73247  22517973.956    22517973.8014   22517981.6004
        -0.000          -0.000
    537337.085 8  19564205.42042         0.000           0.0004          0.0004
        -0.000          -0.000
 -22982771.791 9 -16590881.67749  20646600.014    20646599.5374   20646607.1344
        -0.000          -0.000
 -15218654.784 9 -11837027.23647  22681447.155    22681447.1114   22681455.7164
        -0.000          -0.000
  -7184836.963 9  -5356295.96146  24409659.566    24409659.0954   24409671.3684
        -0.000          -0.000
 01  1 21  0 22 30.0000000  0  8  9 10  5  4  7 24 30  6            -0.000000013
 -14170237.141 9 -11018055.76447  22443616.572    22443616.1384   22443624.5674
        -0.000          -0.000
 -13317394.534 9 -10364434.95247  22786175.663    22786174.4904   22786184.1454
        -0.000          -0.000
 -24339823.905 9 -18951235.48149  20675802.444    20675801.6414   20675808.8484
        -0.000          -0.000
 -12426441.966 9  -9666007.36247  22535595.749    22535595.5924   22535603.5814
        -0.000          -0.000
    597668.711 8  19611217.11952         0.000           0.0004          0.0005
        -0.000          -0.000
 -22944398.041 9 -16560980.05349  20653902.268    20653901.8114   20653909.3924
        -0.000          -0.000
 -15308728.360 9 -11907214.26847  22664306.668    22664306.5784   22664315.4464
        -0.000          -0.000
  -7245002.258 9  -5403177.83946  24398210.412    24398209.9614   24398221.9834
        -0.000          -0.000
 01  1 21  0 23  0.0000000  0  8  9 10  5  4  7 24 30  6            -0.000000013
 -14093355.352 9 -10958147.92047  22458246.697    22458246.2604   22458254.7484
        -0.000          -0.000
 -13406486.359 9 -10433857.07047  22769221.959    22769220.7874   22769230.4314
        -0.000          -0.000
 -24387626.262 9 -18988484.02549  20666705.905    20666705.0984   20666712.2904
        -0.000          -0.000
 -12333664.996 9  -9593713.64247  22553250.744    22553250.5204   22553258.4104
        -0.000          -0.000
    658010.81219  19658236.91245         0.000           0.0005   24979861.2594
        -0.000          -0.000
 -22905600.181 9 -16530747.94249  20661285.280    20661284.7904   20661292.3644
        -0.000          -0.000
 -15398647.833 9 -11977281.36847  22647195.437    22647195.4534   22647203.7764
        -0.000          -0.000
  -7305141.504 9  -5450039.39146  24386765.999    24386765.5744   24386777.6284
        -0.000          -0.000
 01  1 21  0 23 30.0000000  0  8  9 10  5  4  7 24 30  6            -0.000000013
 -14016220.986 9 -10898043.27847  22472924.970    22472924.5384   22472933.0064
        -0.000          -0.000
 -13495396.667 9 -10503137.76147  22752302.816    22752301.6994   22752311.1854
        -0.000          -0.000
 -24435056.854 9 -19025442.89149  20657680.120    20657679.3164   20657686.5644
        -0.000          -0.000
 -12240716.088 9  -9521285.99647  22570938.185    22570938.0154   22570946.0474
        -0.000          -0.000
    718365.122 7  19705266.29845  24991409.929    24991373.2624   24991420.8674
        -0.000          -0.000
 -22866379.197 9 -16500186.13549  20668748.745    20668748.2734   20668755.8554
        -0.000          -0.000
 -15488409.682 9 -12047225.52547  22630114.268    22630114.1394   22630122.7654
        -0.000          -0.000
  -7365254.304 9  -5496880.33946  24375326.643    24375326.1534   24375338.4174
        -0.000          -0.000
 01  1 21  0 24  0.0000000  0  8  9 10  5  4  7 24 30  6            -0.000000013
 -13938838.189 9 -10837745.03447  22487650.519    22487650.0744   22487658.5384
        -0.000          -0.000
 -13584123.285 9 -10572275.30847  22735418.626    22735417.5084   22735426.9924
        -0.000          -0.000
 -24482114.725 9 -19062111.32649  20648725.252    20648724.4464   20648731.6624
        -0.000          -0.000
 -12147598.936 9  -9448727.21047  22588657.822    22588657.7274   22588665.6074
        -0.000          -0.000
    778730.823 9  19752304.49945  25002897.061    25002898.2734   25002905.6914
        -0.000          -0.000
 -22826738.141 9 -16469296.99949  20676292.198    20676291.7314   20676299.2934
        -0.000          -0.000
 -15578012.701 9 -12117045.91447  22613063.141    22613063.1424   22613071.9984
        -0.000          -0.000
  -7425342.345 9  -5543701.99946  24363892.044    24363891.5794   24363903.9934
        -0.000          -0.000
 01  1 21  0 24 30.0000000  0  8  9 10  5  4  7 24 30  6            -0.000000014
 -13861211.680 9 -10777256.88647  22502422.413    22502421.9874   22502430.3534
        -0.000          -0.000
 -13672664.270 9 -10641268.19247  22718569.775    22718568.6424   22718578.0894
        -0.000          -0.000
 -24528799.663 9 -19098489.16349  20639841.373    20639840.5764   20639847.7974
        -0.000          -0.000
 -12054317.723 9  -9376040.61147  22606408.803    22606408.5994   22606416.6044
        -0.000          -0.000
    839106.814 8  19799350.88745  25014386.528    25014386.7714   25014396.1644
        -0.000          -0.000
 -22786681.262 9 -16438083.84149  20683914.768    20683914.3044   20683921.8574
        -0.000          -0.000
 -15667456.573 9 -12186742.42047  22596042.711    22596042.6364   22596050.9074
        -0.000          -0.000
  -7485407.729 9  -5590506.02146  24352461.838    24352461.3424   24352473.9284
        -0.000          -0.000
 01  1 21  0 25  0.0000000  0  8  9 10  5  4  7 24 30  6            -0.000000014
 -13783340.897 9 -10716578.39447  22517240.760    22517240.3294   22517248.6734
        -0.000          -0.000
 -13761013.453 9 -10710111.62547  22701757.354    22701756.2714   22701765.6954
        -0.000          -0.000
 -24575106.084 9 -19134572.06149  20631029.533    20631028.7264   20631035.9654
        -0.000          -0.000
 -11960871.763 9  -9303225.64347  22624190.899    22624190.7394   22624198.7934
        -0.000          -0.000
    899497.208 8  19846408.15045  25025878.211    25025877.5874   25025888.5794
        -0.000          -0.000
 -22746206.812 9 -16406545.30749  20691616.793    20691616.3224   20691623.8754
        -0.000          -0.000
 -15756735.517 9 -12256310.27047  22579053.269    22579053.2564   22579061.8664
        -0.000          -0.000
  -7545447.524 9  -5637290.10446  24341036.604    24341036.1514   24341048.7094
        -0.000          -0.000
 01  1 21  0 25 30.0000000  0  8  9 10  5  4  7 24 30  6            -0.000000013
 -13705230.471 9 -10655713.17247  22532104.679    22532104.2794   22532112.6144
        -0.000          -0.000
 -13849169.223 9 -10778804.33647  22684981.679    22684980.6654   22684990.1184
        -0.000          -0.000
 -24621033.710 9 -19170359.78849  20622289.766    20622288.9664   20622296.1864
        -0.000          -0.000
 -11867265.617 9  -9230285.83547  22642003.690    22642003.4874   22642011.5054
        -0.000          -0.000
    959900.177 9  19893475.51145  25037372.585    25037371.9184   25037382.5884
        -0.000          -0.000
 -22705318.809 9 -16374684.52649  20699397.541    20699397.0764   20699404.6024
        -0.000          -0.000
 -15845848.916 9 -12325749.17047  22562095.608    22562095.5074   22562104.1704
        -0.000          -0.000
  -7605463.822 9  -5684055.87846  24329615.887    24329615.4684   24329627.9054
        -0.000          -0.000
 01  1 21  0 26  0.0000000  0  8  9 10  5  4  7 24 30  6            -0.000000014
 -13626883.508 9 -10594663.63047  22547013.677    22547013.2474   22547021.6184
        -0.000          -0.000
 -13937128.368 9 -10847343.83747  22668243.529    22668242.4734   22668251.9384
        -0.000          -0.000
 -24666580.565 9 -19205850.80449  20613622.478    20613621.6674   20613628.8594
        -0.000          -0.000
 -11773501.497 9  -9157222.92747  22659846.398    22659846.2554   22659854.1334
        -0.000          -0.000
   1020316.448 8  19940553.36545  25048869.429    25048868.8094   25048879.2714
        -0.000          -0.000
 -22664019.648 9 -16342503.35749  20707256.498    20707256.0354   20707263.5824
        -0.000          -0.000
 -15934794.565 9 -12395057.37647  22545169.485    22545169.5134   22545177.9514
        -0.000          -0.000
  -7665457.244 9  -5730803.83546  24318199.526    24318199.0914   24318211.3734
        -0.000          -0.000
 01  1 21  0 26 30.0000000  0  8  9 10  5  4  7 24 30  6            -0.000000013
 -13548301.728 9 -10533431.12647  22561967.289    22561966.8954   22561975.2654
        -0.000          -0.000
 -14024886.243 9 -10915726.50147  22651543.657    22651542.6244   22651552.0384
        -0.000          -0.000
 -24711743.453 9 -19241042.63549  20605028.263    20605027.4264   20605034.6284
        -0.000          -0.000
 -11679581.102 9  -9084038.25247  22677718.884    22677718.7124   22677726.6614
        -0.000          -0.000
   1080747.717 8  19987642.61045  25060368.998    25060368.3094   25060379.5154
        -0.000          -0.000
 -22622310.523 9 -16310002.74249  20715193.490    20715193.0104   20715200.5374
        -0.000          -0.000
 -16023568.862 9 -12464232.04647  22528276.437    22528276.3794   22528284.8924
        -0.000          -0.000
  -7725427.164 9  -5777533.49146  24306787.502    24306787.0924   24306799.1384
        -0.000          -0.000
 01  1 21  0 27  0.0000000  0  8  9 10  5  4  7 24 30  6            -0.000000013
 -13469488.732 9 -10472018.44347  22576964.921    22576964.5134   22576972.9204
        -0.000          -0.000
 -14112440.595 9 -10983950.59147  22634882.517    22634881.4884   22634890.9134
        -0.000          -0.000
 -24756520.972 9 -19275934.18749  20596507.354    20596506.5254   20596513.6764
        -0.000          -0.000
 -11585507.703 9  -9010734.36047  22695620.537    22695620.4284   22695628.3444
        -0.000          -0.000
   1141193.550 8  20034743.29545  25071871.308    25071870.5364   25071881.8494
        -0.000          -0.000
 -22580193.889 9 -16277184.58949  20723207.989    20723207.5324   20723215.0674
        -0.000          -0.000
 -16112170.275 9 -12533271.99047  22511415.853    22511415.8524   22511424.3714
        -0.000          -0.000
  -7785374.671 9  -5824245.70445  24295379.625    24295379.2794   24295391.0334
        -0.000          -0.000
 01  1 21  0 27 30.0000000  0  8  9 10  5  4  7 24 30  6            -0.000000014
 -13390448.443 9 -10410428.65247  22592005.797    22592005.3804   22592013.8194
        -0.000          -0.000
 -14199789.027 9 -11052014.20647  22618260.716    22618259.5954   22618269.0174
        -0.000          -0.000
 -24800912.109 9 -19310524.65649  20588059.962    20588059.1334   20588066.2954
        -0.000          -0.000
 -11491284.649 9  -8937313.85247  22713550.636    22713550.4864   22713558.5434
        -0.000          -0.000
   1201653.705 8  20081855.18145  25083376.377    25083375.3924   25083386.9484
        -0.000          -0.000
 -22537673.130 9 -16244051.53449  20731299.425    20731298.9604   20731306.5124
        -0.000          -0.000
 -16200597.306 9 -12602176.13047  22494588.868    22494588.8004   22494596.9234
        -0.000          -0.000
  -7845301.111 9  -5870941.47745  24283975.582    24283975.3144   24283986.7754
        -0.000          -0.000
 01  1 21  0 28  0.0000000  0  8  9 10  5  4  7 24 30  6            -0.000000014
 -13311181.825 9 -10348662.50647  22607089.772    22607089.3084   22607097.7824
        -0.000          -0.000
 -14286926.270 9 -11119913.27847  22601678.903    22601677.8644   22601687.1994
        -0.000          -0.000
 -24844913.057 9 -19344811.08149  20579686.809    20579685.9904   20579693.1594
        -0.000          -0.000
 -11396912.708 9  -8863777.31147  22731508.936    22731508.8144   22731516.7434
        -0.000          -0.000
   1262130.542 7  20128980.05245  25094884.698    25094883.8064   25094895.3684
        -0.000          -0.000
 -22494748.481 9 -16210603.75749  20739467.725    20739467.2564   20739474.7934
        -0.000          -0.000
 -16288845.843 9 -12670941.05547  22477795.445    22477795.4164   22477803.9834
        -0.000          -0.000
  -7905205.160 9  -5917619.82745  24272575.919    24272575.6964   24272586.9974
        -0.000          -0.000
 01  1 21  0 28 30.0000000  0  8  9 10  5  4  7 24 30  6            -0.000000013
 -13231692.471 9 -10286722.79847  22622216.113    22622215.6664   22622224.1754
        -0.000          -0.000
 -14373849.977 9 -11187645.95147  22585137.833    22585136.7954   22585146.0704
        -0.000          -0.000
 -24888522.459 9 -19378792.40749  20571388.196    20571387.3754   20571394.5484
        -0.000          -0.000
 -11302395.055 9  -8790127.22847  22749495.215    22749495.0724   22749502.9194
        -0.000          -0.000
   1322623.954 7  20176117.84154  25106396.205    25106394.3664          0.0005
        -0.000          -0.000
 -22451422.850 9 -16176843.52849  20747712.292    20747711.8284   20747719.3644
        -0.000          -0.000
 -16376913.977 9 -12739565.52447  22461036.788    22461036.7284   22461044.9664
        -0.000          -0.000
  -7965087.817 9  -5964281.49145  24261180.559    24261180.3054   24261191.5834
        -0.000          -0.000
 01  1 21  0 29  0.0000000  0  8  9 10  5  4  7 24 30  6            -0.000000013
 -13151985.326 9 -10224613.38947  22637383.926    22637383.4364   22637391.9914
        -0.000          -0.000
 -14460558.252 9 -11255210.74947  22568637.656    22568636.6684   22568645.9904
        -0.000          -0.000
 -24931740.015 9 -19412468.40549  20563164.142    20563163.3084   20563170.4784
        -0.000          -0.000
 -11207736.043 9  -8716367.02147  22767508.398    22767508.1434   22767516.1534
        -0.000          -0.000
   1383132.60917  20223267.49253         0.000           0.0005          0.0005
        -0.000          -0.000
 -22407700.527 9 -16142774.18649  20756032.388    20756031.8984   20756039.4334
        -0.000          -0.000
 -16464801.267 9 -12808049.00747  22444312.142    22444312.0164   22444320.4164
        -0.000          -0.000
  -8024951.353 9  -6010928.26546  24249788.881    24249788.5814   24249800.0314
        -0.000          -0.000
 01  1 21  0 29 30.0000000  0  8  9 10  5  4  7 24 30  6            -0.000000013
 -13072061.018 9 -10162334.75447  22652593.041    22652592.5674   22652601.1524
        -0.000          -0.000
 -14547046.158 9 -11322603.83247  22552179.541    22552178.5124   22552187.8014
        -0.000          -0.000
 -24974561.481 9 -19445835.75449  20555015.455    20555014.6304   20555021.7884
        -0.000          -0.000
 -11112936.014 9  -8642496.89647  22785548.214    22785547.9944   22785555.9584
        -0.000          -0.000
   1443658.94116  20270430.91153         0.000           0.0005          0.0005
        -0.000          -0.000
 -22363581.358 9 -16108395.61849  20764427.966    20764427.4964   20764435.0274
        -0.000          -0.000
 -16552503.037 9 -12876387.94547  22427623.001    22427622.9604   22427631.3724
        -0.000          -0.000
  -8084794.044 9  -6057558.80446  24238401.286    24238400.9044   24238412.4094
        -0.000          -0.000
 01  1 21  0 30  0.0000000  0  8  9 10  5  4  7 24 30  6            -0.000000013
 -12991923.273 9 -10099889.81547  22667842.846    22667842.3394   22667850.8624
        -0.000          -0.000
 -14633310.823 9 -11389822.97647  22535763.863    22535762.8264   22535772.1124
        -0.000          -0.000
 -25016985.767 9 -19478893.61549  20546942.370    20546941.5384   20546948.6894
        -0.000          -0.000
 -11017998.203 9  -8568519.44547  22803614.121    22803614.0164   22803622.0324
        -0.000          -0.000
   1504202.47416  19950608.83942         0.000           0.0005          0.0004
        -0.000          -0.000
 -22319068.078 9 -16073709.95449  20772898.566    20772898.1024   20772905.6364
        -0.000          -0.000
 -16640018.000 9 -12944581.34147  22410969.441    22410969.3394   22410977.6084
        -0.000          -0.000
  -8144617.162 9  -6104174.09846  24227017.388    24227016.9054   24227028.5584
        -0.000          -0.000
 01  1 21  0 30 30.0000000  0  7  9 10  5  4 24 30  6               -0.000000012
 -12911574.657 9 -10037280.55547  22683132.685    22683132.1944   22683140.6904
        -0.000          -0.000
 -14719348.389 9 -11456865.15047  22519391.365    22519390.3214   22519399.6254
        -0.000          -0.000
 -25059010.371 9 -19511640.03449  20538945.331    20538944.5154   20538951.6294
        -0.000          -0.000
 -10922924.736 9  -8494436.24247  22821706.226    22821706.0214   22821713.9254
        -0.000          -0.000
 -22274162.400 9 -16038718.52449  20781443.836    20781443.3664   20781450.8924
        -0.000          -0.000
 -16727343.175 9 -13012626.83947  22394351.863    22394351.8434   22394360.0494
        -0.000          -0.000
  -8204420.673 9  -6150774.10446  24215637.120    24215636.6744   24215648.3174
        -0.000          -0.000
 01  1 21  0 31  0.0000000  0  7  9 10  5  4 24 30  6               -0.000000012
 -12831018.011 9  -9974509.19347  22698462.128    22698461.6524   22698470.1414
        -0.000          -0.000
 -14805155.931 9 -11523728.08047  22503062.711    22503061.6454   22503070.9344
        -0.000          -0.000
 -25100633.273 9 -19544073.43549  20531024.768    20531023.9384   20531031.0584
        -0.000          -0.000
 -10827718.036 9  -8420249.26547  22839823.376    22839823.1794   22839831.2574
        -0.000          -0.000
 -22228866.613 9 -16003423.11049  20790063.319    20790062.8594   20790070.3994
        -0.000          -0.000
 -16814476.015 9 -13080522.46447  22377771.054    22377770.9524   22377779.2044
        -0.000          -0.000
  -8264204.999 9  -6197359.17746  24204260.365    24204259.8804   24204271.5674
        -0.000          -0.000
 01  1 21  0 31 30.0000000  0  7  9 10  5  4 24 30  6               -0.000000013
 -12750257.250 9  -9911578.78647  22713830.437    22713829.9834   22713838.4514
        -0.000          -0.000
 -14890731.215 9 -11590410.04247  22486778.181    22486777.1184   22486786.3794
        -0.000          -0.000
 -25141853.633 9 -19576193.17249  20523180.765    20523179.9284   20523187.0454
        -0.000          -0.000
 -10732381.827 9  -8345961.36147  22857965.242    22857965.0214   22857973.1544
        -0.000          -0.000
 -22183184.353 9 -15967826.54849  20798756.385    20798755.9214   20798763.4424
        -0.000          -0.000
 -16901415.573 9 -13148267.48247  22361226.845    22361226.7854   22361235.0204
        -0.000          -0.000
  -8323971.676 9  -6243930.49246  24192887.008    24192886.5934   24192898.2344
        -0.000          -0.000
 01  1 21  0 32  0.0000000  0  7  9 10  5  4 24 30  6               -0.000000013
 -12669293.031 9  -9848489.84547  22729237.509    22729237.0274   22729245.4744
        -0.000          -0.000
 -14976068.148 9 -11656906.25947  22470539.042    22470537.9914   22470547.2084
        -0.000          -0.000
 -25182667.060 9 -19607995.81549  20515414.202    20515413.3754   20515420.4894
        -0.000          -0.000
 -10636915.802 9  -8271572.29947  22876131.809    22876131.6444   22876139.7824
        -0.000          -0.000
 -22137114.977 9 -15931928.33849  20807523.110    20807522.6324   20807530.1574
        -0.000          -0.000
 -16988156.745 9 -13215857.91947  22344720.533    22344720.4434   22344728.6184
        -0.000          -0.000
  -8383718.535 9  -6290486.36646  24181517.402    24181516.9154   24181528.5124
        -0.000          -0.000
 01  1 21  0 32 30.0000000  0  7  9 10  5  4 24 30  6               -0.000000013
 -12588131.077 9  -9785246.82347  22744682.182    22744681.6644   22744690.1484
        -0.000          -0.000
 -15061166.367 9 -11723216.45647  22454345.309    22454344.2814   22454353.4584
        -0.000          -0.000
 -25223074.282 9 -19639481.93849  20507724.972    20507724.1384   20507731.2334
        -0.000          -0.000
 -10541325.543 9  -8197086.43546  22894322.022    22894321.8214   22894330.0584
        -0.000          -0.000
 -22090663.895 9 -15895732.69549  20816362.452    20816361.9824   20816369.4994
        -0.000          -0.000
 -17074699.702 9 -13283293.88347  22328251.831    22328251.7624   22328259.9944
        -0.000          -0.000
  -8443448.920 9  -6337029.41346  24170150.894    24170150.4834   24170162.0714
        -0.000          -0.000
 01  1 21  0 33  0.0000000  0  7  9 10  5  4 24 30  6               -0.000000012
 -12506772.313 9  -9721850.44647  22760164.256    22760163.7074   22760172.2314
        -0.000          -0.000
 -15146020.962 9 -11789336.81747  22438198.015    22438196.9094   22438206.0544
        -0.000          -0.000
 -25263071.655 9 -19670648.69649  20500113.700    20500112.8574   20500119.9434
        -0.000          -0.000
 -10445611.680 9  -8122504.26647  22912535.803    22912535.6324   22912543.9444
        -0.000          -0.000
 -22043831.659 9 -15859240.04949  20825274.333    20825273.8634   20825281.3834
        -0.000          -0.000
 -17161040.207 9 -13350572.12747  22311821.812    22311821.6884   22311829.7494
        -0.000          -0.000
  -8503161.568 9  -6383558.63246  24158787.906    24158787.4804   24158799.0284
        -0.000          -0.000
 01  1 21  0 33 30.0000000  0  7  9 10  5  4 24 30  6               -0.000000012
 -12425220.930 9  -9658303.96847  22775682.982    22775682.4434   22775691.0214
        -0.000          -0.000
 -15230630.052 9 -11855265.88547  22422097.405    22422096.3064   22422105.3794
        -0.000          -0.000
 -25302658.351 9 -19701495.44649  20492580.577    20492579.7424   20492586.8094
        -0.000          -0.000
 -10349777.546 9  -8047828.36647  22930772.579    22930772.4064   22930780.6334
        -0.000          -0.000
 -21996621.544 9 -15822452.95449  20834258.166    20834257.6934   20834265.1874
        -0.000          -0.000
 -17247177.355 9 -13417691.86147  22295430.252    22295430.2144   22295438.4054
        -0.000          -0.000
  -8562857.735 9  -6430075.00346  24147428.004    24147427.5534   24147439.2504
        -0.000          -0.000
 01  1 21  0 34  0.0000000  0  7  9 10  5  4 24 30  6               -0.000000012
 -12343479.788 9  -9594609.63647  22791237.757    22791237.2444   22791245.9114
        -0.000          -0.000
 -15314989.666 9 -11921000.54147  22406044.290    22406043.1394   22406052.2254
        -0.000          -0.000
 -25341832.422 9 -19732020.67049  20485125.979    20485125.1434   20485132.2004
        -0.000          -0.000
 -10253825.638 9  -7973060.69146  22949031.686    22949031.5064   22949039.6414
        -0.000          -0.000
 -21949035.190 9 -15785372.67949  20843313.565    20843313.0654   20843320.5664
        -0.000          -0.000
 -17333108.150 9 -13484650.84247  22279078.277    22279078.1364   22279086.1684
        -0.000          -0.000
  -8622537.614 9  -6476578.67846  24136071.237    24136070.8174   24136082.4604
        -0.000          -0.000
 01  1 21  0 34 30.0000000  0  7  9 10  5  4 24 30  6               -0.000000012
 -12261550.338 9  -9530768.56847  22806828.469    22806827.9714   22806836.6594
        -0.000          -0.000
 -15399095.247 9 -11986537.24747  22390039.436    22390038.2604   22390047.3614
        -0.000          -0.000
 -25380590.446 9 -19762221.70349  20477750.535    20477749.7194   20477756.7794
        -0.000          -0.000
 -10157756.860 9  -7898201.96946  22967312.885    22967312.7404   22967320.8974
        -0.000          -0.000
 -21901073.671 9 -15748000.07049  20852440.333    20852439.8364   20852447.3174
        -0.000          -0.000
 -17418828.769 9 -13551446.03147  22262765.962    22262765.9574   22262773.9814
        -0.000          -0.000
  -8682200.303 9  -6523068.96346  24124717.679    24124717.2764   24124728.8864
        -0.000          -0.000
 01  1 21  0 35  0.0000000  0  7  9 10  5  4 24 30  6               -0.000000012
 -12179437.526 9  -9466784.61547  22822454.076    22822453.5744   22822462.2434
        -0.000          -0.000
 -15482945.460 9 -12051874.97747  22374083.119    22374081.9964   22374091.1344
        -0.000          -0.000
 -25418932.264 9 -19792098.42049  20470454.298    20470453.4904   20470460.5434
        -0.000          -0.000
 -10061575.555 9  -7823255.52647  22985615.779    22985615.5404   22985623.7304
        -0.000          -0.000
 -21852741.311 9 -15710338.49949  20861637.644    20861637.1494   20861644.6524
        -0.000          -0.000
 -17504338.902 9 -13618077.19847  22246493.969    22246493.8134   22246501.9034
        -0.000          -0.000
  -8741848.117 9  -6569547.66046  24113367.014    24113366.5944   24113378.1284
        -0.000          -0.000
 01  1 21  0 35 30.0000000  0  7  9 10  5  4 24 30  6               -0.000000012
 -12097143.420 9  -9402659.40347  22838114.125    22838113.6524   22838122.3254
        -0.000          -0.000
 -15566536.312 9 -12117010.60247  22358176.251    22358175.1084   22358184.2254
        -0.000          -0.000
 -25456855.183 9 -19821648.71649  20463237.818    20463237.0064   20463244.0244
        -0.000          -0.000
  -9965283.261 9  -7748222.66847  23003939.431    23003939.2644   23003947.7724
        -0.000          -0.000
 -21804039.376 9 -15672388.94449  20870905.287    20870904.8234   20870912.3144
        -0.000          -0.000
 -17589635.097 9 -13684541.69447  22230262.447    22230262.4494   22230270.3644
        -0.000          -0.000
  -8801480.577 9  -6616014.39346  24102019.181    24102018.8604   24102030.2644
        -0.000          -0.000
 01  1 21  0 36  0.0000000  0  7  9 10  5  4 24 30  6               -0.000000012
 -12014670.644 9  -9338394.97747  22853808.209    22853807.7984   22853816.4604
        -0.000          -0.000
 -15649864.267 9 -12181941.38047  22342319.412    22342318.2454   22342327.3264
        -0.000          -0.000
 -25494357.190 9 -19850871.03349  20456101.390    20456100.5664   20456107.5764
        -0.000          -0.000
  -9868882.260 9  -7673105.05346  23022284.032    23022283.8544   23022292.2364
        -0.000          -0.000
 -21754970.042 9 -15634153.10549  20880242.855    20880242.3894   20880249.9344
        -0.000          -0.000
 -17674714.622 9 -13750837.32547  22214072.389    22214072.2584   22214080.2574
        -0.000          -0.000
  -8861097.591 9  -6662469.08846  24090674.299    24090673.9344   24090685.2974
        -0.000          -0.000
 01  1 21  0 36 30.0000000  0  7  9 10  5  4 24 30  6               -0.000000012
 -11932022.331 9  -9273993.75747  22869535.764    22869535.2704   22869543.9754
        -0.000          -0.000
 -15732926.358 9 -12246664.99247  22326513.053    22326511.9374   22326520.9974
        -0.000          -0.000
 -25531436.769 9 -19879764.18849  20449045.373    20449044.5514   20449051.5654
        -0.000          -0.000
  -9772374.934 9  -7597904.55446  23040648.848    23040648.7114   23040657.0084
        -0.000          -0.000
 -21705535.514 9 -15595632.69449  20889649.916    20889649.4574   20889656.9904
        -0.000          -0.000
 -17759575.313 9 -13816962.45347  22197923.762    22197923.6974   22197931.7234
        -0.000          -0.000
  -8920700.105 9  -6708912.47946  24079332.109    24079331.6464   24079343.1714
        -0.000          -0.000
 01  1 21  0 37  0.0000000  0  7  9 10  5  4 24 30  6               -0.000000012
 -11849201.889 9  -9209458.40447  22885295.960    22885295.5204   22885304.2554
        -0.000          -0.000
 -15815719.442 9 -12311178.98547  22310757.987    22310756.8654   22310765.9184
        -0.000          -0.000
 -25568092.021 9 -19908326.69949  20442070.063    20442069.2504   20442076.2624
        -0.000          -0.000
  -9675764.128 9  -7522623.47047  23059033.267    23059033.1544   23059041.5594
        -0.000          -0.000
 -21655738.795 9 -15556830.05849  20899125.929    20899125.4674   20899133.0174
        -0.000          -0.000
 -17844214.959 9 -13882915.33047  22181817.307    22181817.2084   22181825.1674
        -0.000          -0.000
  -8980288.594 9  -6755344.92546  24067992.668    24067992.3064   24068003.7504
        -0.000          -0.000
 01  1 21  0 37 30.0000000  0  7  9 10  5  4 24 30  6               -0.000000012
 -11766211.413 9  -9144790.57147  22901088.460    22901088.0474   22901096.8554
        -0.000          -0.000
 -15898239.620 9 -12375480.33947  22295054.868    22295053.7254   22295062.7024
        -0.000          -0.000
 -25604320.514 9 -19936556.67049  20435176.002    20435175.1834   20435182.2014
        -0.000          -0.000
  -9579051.654 9  -7447263.16446  23077436.996    23077436.8634   23077445.3824
        -0.000          -0.000
 -21605581.407 9 -15517746.38549  20908670.507    20908670.0694   20908677.6364
        -0.000          -0.000
 -17928630.429 9 -13948693.52547  22165753.502    22165753.4484   22165761.4054
        -0.000          -0.000
  -9039862.981 9  -6801766.39046  24056655.935    24056655.5354   24056667.1084
        -0.000          -0.000
 01  1 21  0 38  0.0000000  0  7  9 10  5  4 24 30  6               -0.000000011
 -11683053.608 9  -9079992.34547  22916912.920    22916912.4814   22916921.2974
        -0.000          -0.000
 -15980483.513 9 -12439566.40947  22279404.277    22279403.1504   22279412.1034
        -0.000          -0.000
 -25640120.329 9 -19964452.60249  20428363.492    20428362.6794   20428369.6834
        -0.000          -0.000
  -9482239.630 9  -7371825.26046  23095859.845    23095859.7984   23095868.0834
        -0.000          -0.000
 -21555065.762 9 -15478383.54249  20918283.364    20918282.9144   20918290.4334
        -0.000          -0.000
 -18012819.344 9 -14014295.18247  22149732.899    22149732.7804   22149740.6834
        -0.000          -0.000
  -9099423.455 9  -6848177.01746  24045321.792    24045321.4204   24045333.0724
        -0.000          -0.000
 01  1 21  0 38 30.0000000  0  7  9 10  5  4 24 30  6               -0.000000011
 -11599734.409 9  -9015068.36947  22932768.077    22932767.6454   22932776.4354
        -0.000          -0.000
 -16062450.677 9 -12503436.84747  22263806.366    22263805.1994   22263814.2044
        -0.000          -0.000
 -25675492.170 9 -19992015.05249  20421632.433    20421631.6094   20421638.6314
        -0.000          -0.000
  -9385333.185 9  -7296313.76846  23114300.802    23114300.6824   23114308.7784
        -0.000          -0.000
 -21504196.439 9 -15438745.11549  20927963.491    20927963.0234   20927970.5484
        -0.000          -0.000
 -18096781.652 9 -14079720.27047  22133755.247    22133755.1904   22133763.0564
        -0.000          -0.000
  -9158973.140 9  -6894579.23446  24033989.722    24033989.3364   24034000.9374
        -0.000          -0.000
 01  1 21  0 39  0.0000000  0  7  9 10  5  4 24 30  6               -0.000000011
 -11516253.390 9  -8950018.28947  22948654.054    22948653.6074   22948662.4074
        -0.000          -0.000
 -16144134.488 9 -12567086.49947  22248262.400    22248261.2594   22248270.1744
        -0.000          -0.000
 -25710430.988 9 -20019240.07549  20414983.758    20414982.9314   20414989.9264
        -0.000          -0.000
  -9288331.406 9  -7220727.99946  23132759.729    23132759.5544   23132767.6534
        -0.000          -0.000
 -21452972.942 9 -15398830.70549  20937711.003    20937710.5454   20937718.0554
        -0.000          -0.000
 -18180511.854 9 -14144964.47947  22117821.904    22117821.7714   22117829.6764
        -0.000          -0.000
  -9218509.106 9  -6940970.75746  24022660.211    24022659.8294   24022671.3744
        -0.000          -0.000
 01  1 21  0 39 30.0000000  0  7  9 10  5  4 24 30  6               -0.000000011
 -11432614.186 9  -8884844.95047  22964570.109    22964569.6994   22964578.4734
        -0.000          -0.000
 -16225532.525 9 -12630513.46647  22232772.778    22232771.6534   22232780.5534
        -0.000          -0.000
 -25744935.752 9 -20046126.88149  20408417.716    20408416.8874   20408423.8554
        -0.000          -0.000
  -9191237.400 9  -7145070.36846  23151236.060    23151235.8734   23151244.0234
        -0.000          -0.000
 -21401398.172 9 -15358642.58149  20947525.374    20947524.8804   20947532.3934
        -0.000          -0.000
 -18264008.045 9 -14210026.36647  22101932.906    22101932.8414   22101940.6754
        -0.000          -0.000
  -9278032.540 9  -6987352.53446  24011333.194    24011332.8004   24011344.2894
        -0.000          -0.000
 01  1 21  0 40  0.0000000  0  7  9 10  5  4 24 30  6               -0.000000011
 -11348819.813 9  -8819550.69447  22980515.754    22980515.3204   22980524.0974
        -0.000          -0.000
 -16306641.709 9 -12693715.35947  22217338.123    22217337.0084   22217345.9074
        -0.000          -0.000
 -25779004.791 9 -20072674.15449  20401934.587    20401933.7654   20401940.6974
        -0.000          -0.000
  -9094053.630 9  -7069342.81046  23169729.597    23169729.3604   23169737.6334
        -0.000          -0.000
 -21349474.232 9 -15318182.37449  20957406.190    20957405.6804   20957413.2024
        -0.000          -0.000
 -18347267.782 9 -14274903.96947  22086089.089    22086088.9994   22086096.8834
        -0.000          -0.000
  -9337543.965 9  -7033724.93446  24000008.614    24000008.1304   24000019.4684
        -0.000          -0.000
 01  1 21  0 40 30.0000000  0  7  9 10  5  4 24 30  6               -0.000000011
 -11264874.386 9  -8754138.74247  22996490.120    22996489.6724   22996498.4474
        -0.000          -0.000
 -16387459.914 9 -12756690.52047  22201958.818    22201957.7454   22201966.6114
        -0.000          -0.000
 -25812637.293 9 -20098881.27149  20395534.532    20395533.6964   20395540.6254
        -0.000          -0.000
  -8996783.366 9  -6993547.83846  23188239.491    23188239.2654   23188247.5714
        -0.000          -0.000
 -21297204.902 9 -15277453.03449  20967352.682    20967352.2144   20967359.7174
        -0.000          -0.000
 -18430289.854 9 -14339596.40847  22070290.421    22070290.3464   22070298.1424
        -0.000          -0.000
  -9397044.687 9  -7080089.02246  23988685.970    23988685.4994   23988696.7694
        -0.000          -0.000
 01  1 21  0 41  0.0000000  0  7  9 10  5  4 24 30  6               -0.000000011
 -11180779.159 9  -8688610.06147  23012492.952    23012492.4734   23012501.3204
        -0.000          -0.000
 -16467982.187 9 -12819435.09047  22186635.851    22186634.7824   22186643.6984
        -0.000          -0.000
 -25845829.734 9 -20124745.47949  20389218.204    20389217.3694   20389224.2984
        -0.000          -0.000
  -8899427.398 9  -6917686.04946  23206765.717    23206765.5114   23206773.7334
        -0.000          -0.000
 -21244590.731 9 -15236454.98849  20977364.839    20977364.3634   20977371.8604
        -0.000          -0.000
 -18513069.944 9 -14404100.27447  22054537.862    22054537.7714   22054545.5844
        -0.000          -0.000
  -9456533.355 9  -7126443.69846  23977365.593    23977365.1354   23977376.3304
        -0.000          -0.000
 01  1 21  0 41 30.0000000  0  7  9 10  5  4 24 30  6               -0.000000011
 -11096537.732 9  -8622967.45547  23028523.528    23028523.0754   23028532.0354
        -0.000          -0.000
 -16548205.918 9 -12881947.02347  22171369.730    22171368.6714   22171377.5334
        -0.000          -0.000
 -25878581.005 9 -20150265.92249  20382985.794    20382984.9634   20382991.8854
        -0.000          -0.000
  -8801988.517 9  -6841759.74046  23225307.576    23225307.3654   23225315.7924
        -0.000          -0.000
 -21191634.920 9 -15195190.72649  20987442.047    20987441.5374   20987449.0334
        -0.000          -0.000
 -18595606.298 9 -14468414.22747  22038831.659    22038831.5944   22038839.3104
        -0.000          -0.000
  -9516010.959 9  -7172789.77446  23966047.403    23966046.9614   23966058.0644
        -0.000          -0.000
 01  1 21  0 42  0.0000000  0  7  9 10  5  4 24 30  6               -0.000000011
 -11012153.193 9  -8557213.33447  23044581.407    23044580.9784   23044589.9574
        -0.000          -0.000
 -16628128.059 9 -12944223.95247  22156160.953    22156159.9104   22156168.7954
        -0.000          -0.000
 -25910889.639 9 -20175441.45349  20376837.666    20376836.8204   20376843.7564
        -0.000          -0.000
  -8704469.315 9  -6765770.79146  23243865.034    23243864.8674   23243873.1984
        -0.000          -0.000
 -21138339.699 9 -15153661.98949  20997583.764    20997583.2964   20997590.7684
        -0.000          -0.000
 -18677896.578 9 -14532536.43647  22023172.282    22023172.2454   22023179.8524
        -0.000          -0.000
  -9575478.164 9  -7219127.73146  23954731.192    23954730.7054   23954741.7904
        -0.000          -0.000
 01  1 21  0 42 30.0000000  0  7  9 10  5  4 24 30  6               -0.000000011
 -10927628.464 9  -8491349.98647  23060665.936    23060665.5134   23060674.5224
        -0.000          -0.000
 -16707745.562 9 -13006263.49947  22141010.162    22141009.1284   22141018.0014
        -0.000          -0.000
 -25942754.116 9 -20200270.89349  20370774.013    20370773.1674   20370780.1084
        -0.000          -0.000
  -8606872.214 9  -6689721.14746  23262437.156    23262436.9104   23262445.1254
        -0.000          -0.000
 -21084707.762 9 -15111870.87749  21007789.630    21007789.1204   21007796.5834
        -0.000          -0.000
 -18759938.350 9 -14596464.99847  22007560.217    22007560.1234   22007567.8124
        -0.000          -0.000
  -9634935.480 9  -7265457.99746  23943416.806    23943416.3184   23943427.4194
        -0.000          -0.000
 01  1 21  0 43  0.0000000  0  7  9 10  5  4 24 30  6               -0.000000011
 -10842966.489 9  -8425379.68247  23076776.642    23076776.2104   23076785.2254
        -0.000          -0.000
 -16787055.314 9 -13068063.23647  22125918.003    22125916.9964   22125925.8404
        -0.000          -0.000
 -25974172.551 9 -20224752.76249  20364795.282    20364794.4264   20364801.3484
        -0.000          -0.000
  -8509199.502 9  -6613612.56446  23281023.651    23281023.4334   23281031.6364
        -0.000          -0.000
 -21030741.001 9 -15069818.86349  21018059.152    21018058.6714   21018066.1614
        -0.000          -0.000
 -18841729.091 9 -14660197.95947  21991995.817    21991995.7584   21992003.3664
        -0.000          -0.000
  -9694382.969 9  -7311780.59446  23932104.194    23932103.7504   23932114.9624
        -0.000          -0.000
 01  1 21  0 43 30.0000000  0  7  9 10  5  4 24 30  6               -0.000000011
 -10758169.803 9  -8359304.40947  23092912.980    23092912.5304   23092921.5464
        -0.000          -0.000
 -16866053.648 9 -13129620.29647  22110885.006    22110884.0344   22110892.9054
        -0.000          -0.000
 -26005142.821 9 -20248885.40849  20358901.764    20358900.9164   20358907.8704
        -0.000          -0.000
  -8411452.850 9  -6537446.38846  23299624.248    23299624.0264   23299632.3514
        -0.000          -0.000
 -20976441.606 9 -15027507.65049  21028391.951    21028391.4584   21028398.9744
        -0.000          -0.000
 -18923265.958 9 -14723733.08448  21976479.888    21976479.7704   21976487.3704
        -0.000          -0.000
  -9753820.651 9  -7358095.53746  23920793.375    23920792.9204   23920804.2524
        -0.000          -0.000
 01  1 21  0 44  0.0000000  0  7  9 10  5  4 24 30  6               -0.000000011
 -10673241.544 9  -8293126.62647  23109074.355    23109073.8714   23109082.8774
        -0.000          -0.000
 -16944737.077 9 -13190931.99647  22095912.024    22095911.0094   22095919.8674
        -0.000          -0.000
 -26035663.248 9 -20272667.53249  20353093.894    20353093.0674   20353100.0124
        -0.000          -0.000
  -8313634.821 9  -6461224.62046  23318238.414    23318238.2094   23318246.6244
        -0.000          -0.000
 -20921812.233 9 -14984939.31149  21038787.609    21038787.1414   21038794.6154
        -0.000          -0.000
 -19004546.750 9 -14787068.68047  21961012.483    21961012.3684   21961019.9994
        -0.000          -0.000
  -9813248.906 9  -7404403.14046  23909484.370    23909483.9594   23909495.3534
        -0.000          -0.000
 01  1 21  0 44 30.0000000  0  7  9 10  5  4 24 30  6               -0.000000011
 -10588184.795 9  -8226848.71947  23125260.251    23125259.7364   23125268.6824
        -0.000          -0.000
 -17023102.878 9 -13251996.18147  22080999.532    22080998.4434   22081007.3094
        -0.000          -0.000
 -26065732.260 9 -20296097.90349  20347371.926    20347371.0984   20347378.0334
        -0.000          -0.000
  -8215748.037 9  -6384949.25346  23336865.604    23336865.3344   23336873.9794
        -0.000          -0.000
 -20866855.094 9 -14942115.57549  21049245.593    21049245.1014   21049252.5864
        -0.000          -0.000
 -19085568.927 9 -14850202.77548  21945594.473    21945594.4114   21945601.9534
        -0.000          -0.000
  -9872668.188 9  -7450703.75946  23898176.969    23898176.6274   23898188.0614
        -0.000          -0.000
 01  1 21  0 45  0.0000000  0  7  9 10  5  4 24 30  6               -0.000000011
 -10503002.304 9  -8160472.83247  23141470.024    23141469.4644   23141478.4414
        -0.000          -0.000
 -17101147.942 9 -13312810.44047  22066148.048    22066146.9544   22066155.7584
        -0.000          -0.000
 -26095348.188 9 -20319175.22149  20341736.173    20341735.3504   20341742.2864
        -0.000          -0.000
  -8117794.172 9  -6308621.62446  23355505.415    23355505.2104   23355513.8864
        -0.000          -0.000
 -20811572.538 9 -14899038.25749  21059765.529    21059765.0384   21059772.5094
        -0.000          -0.000
 -19166329.749 9 -14913133.20547  21930226.053    21930225.9714   21930233.4634
        -0.000          -0.000
  -9932078.897 9  -7496997.70346  23886871.355    23886870.9434   23886882.3714
        -0.000          -0.000
 01  1 21  0 45 30.0000000  0  7  9 10  5  4 24 30  6               -0.000000011
 -10417697.172 9  -8094001.37747  23157703.095    23157702.5964   23157711.5544
        -0.000          -0.000
 -17178869.023 9 -13373372.24247  22051358.195    22051357.0534   22051365.8304
        -0.000          -0.000
 -26124509.293 9 -20341898.13349  20336186.945    20336186.1314   20336193.0514
        -0.000          -0.000
  -8019775.788 9  -6232243.67146  23374157.795    23374157.6674   23374166.1264
        -0.000          -0.000
 -20755967.007 9 -14855709.28149  21070346.859    21070346.3934   21070353.8824
        -0.000          -0.000
 -19246826.753 9 -14975858.08248  21914908.005    21914907.8954   21914915.3774
        -0.000          -0.000
  -9991481.295 9  -7543285.18446  23875567.399    23875567.0484   23875578.2164
        -0.000          -0.000
 01  1 21  0 46  0.0000000  0  7  9 10  5  4 24 30  6               -0.000000010
 -10332272.534 9  -8027436.80547  23173958.874    23173958.4034   23173967.3654
        -0.000          -0.000
 -17256263.068 9 -13433679.21147  22036630.435    22036629.3594   22036638.1114
        -0.000          -0.000
 -26153214.053 9 -20364265.45649  20330724.599    20330723.7834   20330730.6734
        -0.000          -0.000
  -7921695.310 9  -6155817.36546  23392822.047    23392821.9174   23392830.3824
        -0.000          -0.000
 -20700041.300 9 -14812130.80849  21080989.187    21080988.6854   21080996.2064
        -0.000          -0.000
 -19327057.576 9 -15038375.52648  21899640.500    21899640.4244   21899647.9054
        -0.000          -0.000
 -10050876.000 9  -7589566.68046  23864264.966    23864264.5634   23864275.5234
        -0.000          -0.000
 01  1 21  0 46 30.0000000  0  7  9 10  5  4 24 30  6               -0.000000011
 -10246731.078 9  -7960781.20547  23190236.934    23190236.4744   23190245.4294
        -0.000          -0.000
 -17333326.664 9 -13493728.68847  22021965.657    22021964.5714   22021973.3334
        -0.000          -0.000
 -26181460.745 9 -20386275.84249  20325349.412    20325348.5844   20325355.4684
        -0.000          -0.000
  -7823554.671 9  -6079344.21846  23411497.474    23411497.3584   23411506.0704
        -0.000          -0.000
 -20643797.179 9 -14768304.22749  21091692.073    21091691.5964   21091699.1214
        -0.000          -0.000
 -19407019.712 9 -15100683.62348  21884424.203    21884424.0794   21884431.4934
        -0.000          -0.000
 -10110263.086 9  -7635842.24646  23852963.871    23852963.5074   23852974.2704
        -0.000          -0.000
 01  1 21  0 47  0.0000000  0  7  9 10  5  4 24 30  6               -0.000000011
 -10161075.331 9  -7894036.55647  23206536.728    23206536.2594   23206545.2614
        -0.000          -0.000
 -17410056.437 9 -13553518.04247  22007364.408    22007363.2904   22007372.0264
        -0.000          -0.000
 -26209247.481 9 -20407927.82149  20320061.753    20320060.9354   20320067.8314
        -0.000          -0.000
  -7725355.834 9  -6002825.70046  23430184.012    23430183.9514   23430192.6904
        -0.000          -0.000
 -20587236.894 9 -14724231.27649  21102455.134    21102454.6354   21102462.1604
        -0.000          -0.000
 -19486710.319 9 -15162780.12448  21869259.515    21869259.4774   21869266.9184
        -0.000          -0.000
 -10169642.581 9  -7682111.89446  23841664.291    23841663.8094   23841674.4524
        -0.000          -0.000
 01  1 21  0 47 30.0000000  0  7  9 10  5  4 24 30  6               -0.000000010
 -10075308.706 9  -7827205.50247  23222857.587    23222857.1304   23222866.2014
        -0.000          -0.000
 -17486450.049 9 -13613045.45947  21992827.149    21992826.0544   21992834.7454
        -0.000          -0.000
 -26236573.347 9 -20429220.68549  20314861.771    20314860.9644   20314867.8274
        -0.000          -0.000
  -7627101.632 9  -5926264.02446  23448881.398    23448881.3074   23448889.8854
        -0.000          -0.000
 -20530363.508 9 -14679914.35049  21113277.775    21113277.3024   21113284.8394
        -0.000          -0.000
 -19566127.413 9 -15224663.51948  21854146.884    21854146.7994   21854154.1134
        -0.000          -0.000
 -10229015.478 9  -7728376.40146  23830365.967    23830365.4924   23830375.9234
        -0.000          -0.000
 01  1 21  0 48  0.0000000  0  8  9 17 10  5  4 24 30  6            -0.000000010
  -9989433.962 9  -7760290.20947  23239199.044    23239198.6284   23239207.7494
        -0.000          -0.000
   -186208.340 9    -79770.40542         0.000           0.0004          0.0004
        -0.000          -0.000
 -17562503.946 9 -13672308.17047  21978354.536    21978353.3934   21978362.0834
        -0.000          -0.000
 -26263436.315 9 -20450152.84749  20309749.908    20309749.0934   20309755.9474
        -0.000          -0.000
  -7528793.879 9  -5849660.57646  23467588.841    23467588.7274   23467596.9644
        -0.000          -0.000
 -20473178.999 9 -14635354.98849  21124159.643    21124159.1494   21124166.6534
        -0.000          -0.000
 -19645268.326 9 -15286331.67748  21839086.821    21839086.7454   21839094.2274
        -0.000          -0.000
 -10288381.705 9  -7774635.71346  23819068.872    23819068.4524   23819078.7414
        -0.000          -0.000
 01  1 21  0 48 30.0000000  0  7  9 10  5  4 24 30  6               -0.000000010
  -9903453.912 9  -7693292.85647  23255560.597    23255560.1314   23255569.2784
        -0.000          -0.000
 -17638214.812 9 -13731303.58247  21963947.138    21963946.0474   21963954.6994
        -0.000          -0.000
 -26289834.639 9 -20470722.94349  20304726.450    20304725.6214   20304732.4904
        -0.000          -0.000
  -7430434.704 9  -5773017.10946  23486305.945    23486305.8394   23486314.1614
        -0.000          -0.000
 -20415685.652 9 -14590554.97649  21135100.267    21135099.7954   21135107.3114
        -0.000          -0.000
 -19724130.117 9 -15347782.38148  21824079.826    21824079.7844   21824087.0754
        -0.000          -0.000
 -10347741.507 9  -7820890.01246  23807773.136    23807772.6824   23807782.8864
        -0.000          -0.000
 01  1 21  0 49  0.0000000  0  8  9 17 10  5  4 24 30  6            -0.000000010
  -9817371.706 9  -7626215.90847  23271941.565    23271941.1104   23271950.2934
        -0.000          -0.000
   -377006.122 9   -228437.57352         0.000           0.0004          0.0005
        -0.000          -0.000
 -17713579.486 9 -13790029.23747  21949605.675    21949604.6054   21949613.2504
        -0.000          -0.000
 -26315766.658 9 -20490929.68749  20299791.743    20299790.9274   20299797.7984
        -0.000          -0.000
  -7332026.497 9  -5696335.48246  23505032.526    23505032.3744   23505040.9304
        -0.000          -0.000
 -20357886.014 9 -14545516.29449  21146099.148    21146098.6614   21146106.1994
        -0.000          -0.000
 -19802710.595 9 -15409013.82648  21809126.451    21809126.3074   21809133.8114
        -0.000          -0.000
 -10407095.132 9  -7867139.49946  23796478.496    23796478.1014   23796488.2674
        -0.000          -0.000
 01  1 21  0 49 30.0000000  0  7  9 10  5  4 24 30  6               -0.000000010
  -9731190.077 9  -7559061.48947  23288341.458    23288341.0174   23288350.1894
        -0.000          -0.000
 -17788595.125 9 -13848482.91847  21935330.676    21935329.5584   21935338.1684
        -0.000          -0.000
 -26341231.170 9 -20510772.14149  20294945.975    20294945.1524   20294952.0234
        -0.000          -0.000
  -7233571.320 9  -5619617.21246  23523768.030    23523767.8744   23523776.3654
        -0.000          -0.000
 -20299782.790 9 -14500241.05249  21157155.813    21157155.3164   21157162.8724
        -0.000          -0.000
 -19881007.378 9 -15470024.25848  21794227.013    21794226.9514   21794234.1824
        -0.000          -0.000
 -10466443.094 9  -7913384.56746  23785184.869    23785184.4304   23785194.7754
        -0.000          -0.000
 01  1 21  0 50  0.0000000  0  8  9 17 10  5  4 24 30  6            -0.000000011
  -9644911.794 9  -7491831.74447  23304759.775    23304759.3214   23304768.4714
        -0.000          -0.000
  -1626578.416 8  -1208845.13542         0.000           0.0004          0.0004
        -0.000          -0.000
 -17863258.398 9 -13906662.02948  21921122.668    21921121.5444   21921130.1564
        -0.000          -0.000
 -26366226.385 9 -20530248.91349  20290189.526    20290188.7054   20290195.5684
        -0.000          -0.000
  -7135071.305 9  -5542863.94846  23542511.937    23542511.8684   23542520.0434
        -0.000          -0.000
 -20241378.126 9 -14454730.91849  21168269.837    21168269.3824   21168276.8894
        -0.000          -0.000
 -19959017.788 9 -15530811.49148  21779382.014    21779381.9184   21779389.3294
        -0.000          -0.000
 -10525785.589 9  -7959625.34346  23773892.127    23773891.6984   23773902.3434
        -0.000          -0.000
 01  1 21  0 50 30.0000000  0  8  9 17 10  5  4 24 30  6            -0.000000011
  -9558539.323 9  -7424528.62147  23321195.941    23321195.5424   23321204.7034
        -0.000          -0.000
  -1721651.958 8  -1282959.15452         0.000           0.0004          0.0005
        -0.000          -0.000
 -17937565.631 9 -13964563.71748  21906982.459    21906981.3134   21906989.8954
        -0.000          -0.000
 -26390750.028 9 -20549358.22749  20285522.790    20285521.9554   20285528.8294
        -0.000          -0.000
  -7036527.856 9  -5466076.90246  23561264.090    23561264.0564   23561272.3074
        -0.000          -0.000
 -20182673.766 9 -14408987.25848  21179440.906    21179440.4094   21179447.9624
        -0.000          -0.000
 -20036738.665 9 -15591373.15248  21764592.242    21764592.1274   21764599.4444
        -0.000          -0.000
 -10585122.192 9  -8005861.53446  23762600.387    23762599.9454   23762610.9174
        -0.000          -0.000
 01  1 21  0 51  0.0000000  0  7  9 10  5  4 24 30  6               -0.000000011
  -9472075.530 9  -7357154.33147  23337649.584    23337649.1014   23337658.2534
        -0.000          -0.000
 -18011514.072 9 -14022185.81448  21892910.396    21892909.3244   21892917.8734
        -0.000          -0.000
 -26414800.836 9 -20568099.09449  20280946.050    20280945.2144   20280952.1024
        -0.000          -0.000
  -6937943.374 9  -5389257.88446  23580024.122    23580024.1094   23580032.4804
        -0.000          -0.000
 -20123672.293 9 -14363012.07848  21190668.488    21190668.0364   21190675.5544
        -0.000          -0.000
 -20114167.558 9 -15651707.27648  21749857.820    21749857.8074   21749865.1264
        -0.000          -0.000
 -10644453.242 9  -8052093.40546  23751310.022    23751309.6604   23751320.4924
        -0.000          -0.000
 01  1 21  0 51 30.0000000  0  7  9 10  5  4 24 30  6               -0.000000011
  -9385524.289 9  -7289711.90047  23354119.814    23354119.3404   23354128.5564
        -0.000          -0.000
 -18085101.437 9 -14079526.55348  21878907.212    21878906.0494   21878914.5584
        -0.000          -0.000
 -26438378.166 9 -20586471.01749  20276459.421    20276458.5904   20276465.4544
        -0.000          -0.000
  -6839320.733 9  -5312409.09946  23598791.522    23598791.4674   23598799.8714
        -0.000          -0.000
 -20064376.992 9 -14316807.94548  21201952.013    21201951.5344   21201959.0624
        -0.000          -0.000
 -20191302.823 9 -15711812.59548  21735179.430    21735179.3494   21735186.6884
        -0.000          -0.000
 -10703779.995 9  -8098321.93646  23740020.515    23740020.1464   23740030.7484
        -0.000          -0.000
 01  1 21  0 52  0.0000000  0  7  9 10  5  4 24 30  6               -0.000000011
  -9298888.000 9  -7222203.20147  23370606.194    23370605.7564   23370614.9974
        -0.000          -0.000
 -18158323.858 9 -14136582.92848  21864973.347    21864972.2354   21864980.7304
        -0.000          -0.000
 -26461479.793 9 -20604472.27149  20272063.309    20272062.4834   20272069.3424
        -0.000          -0.000
  -6740661.471 9  -5235531.83046  23617565.580    23617565.4704   23617574.1564
        -0.000          -0.000
 -20004788.957 9 -14270375.71448  21213291.233    21213290.7644   21213298.2834
        -0.000          -0.000
 -20268141.240 9 -15771686.62548  21720557.561    21720557.5314   21720564.7854
        -0.000          -0.000
 -10763102.122 9  -8144546.85546  23728731.913    23728731.4914   23728741.8914
        -0.000          -0.000
 01  1 21  0 52 30.0000000  0  7  9 10  5  4 24 30  6               -0.000000011
  -9212169.085 9  -7154630.12347  23387108.317    23387107.8524   23387117.1274
        -0.000          -0.000
 -18231177.994 9 -14193352.32048  21851109.645    21851108.5234   21851116.9834
        -0.000          -0.000
 -26484103.962 9 -20622101.47149  20267758.048    20267757.2244   20267764.0884
        -0.000          -0.000
  -6641967.507 9  -5158627.48646  23636346.262    23636346.2384   23636354.9694
        -0.000          -0.000
 -19944910.723 9 -14223717.34648  21224685.703    21224685.2264   21224692.7354
        -0.000          -0.000
 -20344680.263 9 -15831327.33948  21705992.480    21705992.4944   21705999.8034
        -0.000          -0.000
 -10822419.552 9  -8190768.11146  23717444.205    23717443.7554   23717454.0964
        -0.000          -0.000
 01  1 21  0 53  0.0000000  0  8  9 17 10  5  4 24 30  6            -0.000000011
  -9125370.808 9  -7086995.18247  23403625.583    23403625.0784   23403634.4314
        -0.000          -0.000
  -1684806.875 8  -1297053.38352         0.000           0.0004          0.0005
        -0.000          -0.000
 -18303661.305 9 -14249832.75948  21837316.466    21837315.3814   21837323.8244
        -0.000          -0.000
 -26506249.474 9 -20639357.69449  20263543.876    20263543.0514   20263549.9144
        -0.000          -0.000
  -6543241.101 9  -5081697.83746  23655133.297    23655133.1924   23655141.9714
        -0.000          -0.000
 -19884744.847 9 -14176834.85148  21236134.859    21236134.3704   21236141.9224
        -0.000          -0.000
 -20420917.324 9 -15890732.76248  21691485.067    21691484.9784   21691492.3054
        -0.000          -0.000
 -10881732.578 9  -8236985.92946  23706157.281    23706156.8494   23706167.1664
        -0.000          -0.000
 01  1 21  0 53 30.0000000  0  7  9 10  5  4 24 30  6               -0.000000011
  -9038496.070 9  -7019300.67647  23420157.427    23420156.9034   23420166.2954
        -0.000          -0.000
 -18375770.715 9 -14306021.84048  21823594.476    21823593.3814   21823601.7804
        -0.000          -0.000
 -26527915.389 9 -20656240.20549  20259420.970    20259420.1454   20259427.0024
        -0.000          -0.000
  -6444484.591 9  -5004744.77646  23673926.110    23673926.0024   23673934.8244
        -0.000          -0.000
 -19824294.216 9 -14129730.46048  21247638.294    21247637.7964   21247645.2664
        -0.000          -0.000
 -20496850.152 9 -15949901.14348  21677035.519    21677035.4714   21677042.6534
        -0.000          -0.000
 -10941041.897 9  -8283200.84946  23694870.937    23694870.4634   23694880.8984
        -0.000          -0.000
 01  1 21  0 54  0.0000000  0  7  9 10  5  4 24 30  6               -0.000000011
  -8951547.772 9  -6951548.85147  23436703.252    23436702.7084   23436712.0994
        -0.000          -0.000
 -18447503.071 9 -14361917.11348  21809944.170    21809943.1014   21809951.4994
        -0.000          -0.000
 -26549100.179 9 -20672747.81549  20255389.642    20255388.8064   20255395.6394
        -0.000          -0.000
  -6345699.923 9  -4927769.75846  23692724.310    23692724.1784   23692733.0284
        -0.000          -0.000
 -19763561.111 9 -14082405.96548  21259195.446    21259194.8964   21259202.4064
        -0.000          -0.000
 -20572476.410 9 -16008830.61648  21662644.159    21662644.1144   21662651.3734
        -0.000          -0.000
 -11000347.469 9  -8329412.86046  23683585.279    23683584.7964   23683595.3324
        -0.000          -0.000
 01  1 21  0 54 30.0000000  0  7  9 10  5  4 24 30  6               -0.000000011
  -8864529.002 9  -6883742.10047  23453262.471    23453261.9354   23453271.3004
        -0.000          -0.000
 -18518855.592 9 -14417516.41048  21796366.193    21796365.1014   21796373.4934
        -0.000          -0.000
 -26569802.497 9 -20688879.47049  20251450.093    20251449.2734   20251456.0824
        -0.000          -0.000
  -6246889.372 9  -4850774.62146  23711527.225    23711527.1514   23711536.1104
        -0.000          -0.000
 -19702548.153 9 -14034863.40348  21270805.827    21270805.3084   21270812.8044
        -0.000          -0.000
 -20647793.418 9 -16067519.13148  21648311.852    21648311.7264   21648318.9374
        -0.000          -0.000
 -11059649.899 9  -8375622.41246  23672300.263    23672299.7684   23672310.4284
        -0.000          -0.000
 01  1 21  0 55  0.0000000  0  8  9 17 10  5  4 24 30  6            -0.000000011
  -8777442.221 9  -6815882.37347  23469834.564    23469834.0424   23469843.4444
        -0.000          -0.000
  -1426165.692 8  -1098828.28352         0.000           0.0004          0.0005
        -0.000          -0.000
 -18589825.205 9 -14472817.33648  21782861.042    21782859.9704   21782868.3634
        -0.000          -0.000
 -26590020.756 9 -20704633.93749  20247602.677    20247601.8474   20247608.6664
        -0.000          -0.000
  -6148054.694 9  -4773760.59846  23730334.939    23730334.9104   23730343.6134
        -0.000          -0.000
 -19641256.917 9 -13987104.00148  21282469.097    21282468.5944   21282476.0674
        -0.000          -0.000
 -20722798.545 9 -16125964.62548  21634038.791    21634038.7264   21634045.8954
        -0.000          -0.000
 -11118949.075 9  -8421829.43046  23661015.939    23661015.4304   23661026.1194
        -0.000          -0.000
 01  1 21  0 55 30.0000000  0  8  9 17 10  5  4 24 30  6            -0.000000010
  -8690290.659 9  -6747972.16847  23486418.976    23486418.4514   23486427.9204
        -0.000          -0.000
  -1520215.090 8  -1172108.58752         0.000           0.0004          0.0005
        -0.000          -0.000
 -18660409.052 9 -14527817.67048  21769429.346    21769428.2394   21769436.6464
        -0.000          -0.000
 -26609753.653 9 -20720010.20349  20243847.578    20243846.7574   20243853.5724
        -0.000          -0.000
  -6049198.143 9  -4696729.51346  23749146.966    23749146.9084   23749155.3734
        -0.000          -0.000
 -19579690.498 9 -13939130.17248  21294184.784    21294184.2934   21294191.8074
        -0.000          -0.000
 -20797489.583 9 -16184165.36648  21619825.428    21619825.3464   21619832.5554
        -0.000          -0.000
 -11178245.604 9  -8468034.39546  23649732.174    23649731.6424   23649742.2904
        -0.000          -0.000
 01  1 21  0 56  0.0000000  0  7  9 10  5  4 24 30  6               -0.000000010
  -8603077.111 9  -6680013.65147  23503015.182    23503014.6114   23503024.1594
        -0.000          -0.000
 -18730603.615 9 -14582514.66248  21756071.717    21756070.6064   21756079.0224
        -0.000          -0.000
 -26628999.646 9 -20735007.06349  20240185.218    20240184.3824   20240191.1794
        -0.000          -0.000
  -5950321.646 9  -4619682.97446  23767962.498    23767962.3524   23767971.0254
        -0.000          -0.000
 -19517850.998 9 -13890943.55648  21305952.484    21305951.9664   21305959.4494
        -0.000          -0.000
 -20871863.738 9 -16242119.19248  21605672.482    21605672.3844   21605679.5554
        -0.000          -0.000
 -11237539.603 9  -8514237.38746  23638448.857    23638448.3034   23638458.7954
        -0.000          -0.000
 01  1 21  0 56 30.0000000  0  7  9 10  5  4 24 30  6               -0.000000010
  -8515803.997 9  -6612008.73147  23519622.707    23519622.1744   23519631.7354
        -0.000          -0.000
 -18800405.744 9 -14636905.86248  21742788.713    21742787.6324   21742796.0314
        -0.000          -0.000
 -26647757.010 9 -20749623.17049  20236615.773    20236614.9534   20236621.7504
        -0.000          -0.000
  -5851426.653 9  -4542622.00146  23786781.599    23786781.5044   23786790.3614
        -0.000          -0.000
 -19455740.206 9 -13842545.54048  21317771.763    21317771.2244   21317778.7494
        -0.000          -0.000
 -20945918.161 9 -16299823.87548  21591580.346    21591580.2704   21591587.4044
        -0.000          -0.000
 -11296830.819 9  -8560438.20346  23627166.010    23627165.4544   23627175.7554
        -0.000          -0.000
 01  1 21  0 57  0.0000000  0  7  9 10  5  4 24 30  6               -0.000000010
  -8428474.039 9  -6543959.51847  23536241.097    23536240.5894   23536250.2054
        -0.000          -0.000
 -18869812.587 9 -14690989.04948  21729580.989    21729579.9254   21729588.2944
        -0.000          -0.000
 -26666024.656 9 -20763857.68149  20233139.551    20233138.7394   20233145.5054
        -0.000          -0.000
  -5752515.473 9  -4465548.41646  23805603.872    23805603.7344   23805612.6584
        -0.000          -0.000
 -19393361.039 9 -13793938.40248  21329642.093    21329641.5864   21329649.1024
        -0.000          -0.000
 -21019650.295 9 -16357277.41848  21577549.445    21577549.4234   21577556.5364
        -0.000          -0.000
 -11356119.249 9  -8606636.86046  23615883.648    23615883.1054   23615893.3264
        -0.000          -0.000
 01  1 21  0 57 30.0000000  0  7  9 10  5  4 24 30  6               -0.000000010
  -8341091.372 9  -6475869.21847  23552869.599    23552869.0584   23552878.6704
        -0.000          -0.000
 -18938822.555 9 -14744762.97948  21716448.743    21716447.6964   21716456.0414
        -0.000          -0.000
 -26683802.433 9 -20777710.47349  20229756.539    20229755.7124   20229762.4714
        -0.000          -0.000
  -5653591.196 9  -4388464.61746  23824428.509    23824428.4114   23824437.2014
        -0.000          -0.000
 -19330716.694 9 -13745124.62848  21341562.860    21341562.3744   21341569.8994
        -0.000          -0.000
 -21093058.920 9 -16414478.87748  21563580.276    21563580.1844   21563587.2594
        -0.000          -0.000
 -11415406.569 9  -8652834.64346  23604601.470    23604600.9654   23604611.0584
        -0.000          -0.000
 01  1 21  0 58  0.0000000  0  7  9 10  5  4 24 30  6               -0.000000010
  -8253657.089 9  -6407738.70947  23569507.911    23569507.3994   23569516.9824
        -0.000          -0.000
 -19007430.940 9 -14798223.98848  21703393.002    21703391.9154   21703400.2284
        -0.000          -0.000
 -26701087.056 9 -20791178.99449  20226467.371    20226466.5494   20226473.3014
        -0.000          -0.000
  -5554654.241 9  -4311370.86345  23843255.628    23843255.4194   23843264.0554
        -0.000          -0.000
 -19267808.046 9 -13696104.90948  21353534.002    21353533.4964   21353540.9954
        -0.000          -0.000
 -21166139.788 9 -16471424.93948  21549673.417    21549673.3324   21549680.4294
        -0.000          -0.000
 -11474691.261 9  -8699030.39746  23593319.947    23593319.5144   23593329.3724
        -0.000          -0.000
 01  1 21  0 58 30.0000000  0  7  9 10  5  4 24 30  6               -0.000000010
  -8166175.220 9  -6339571.11647  23586155.221    23586154.7054   23586164.3384
        -0.000          -0.000
 -19075635.543 9 -14851370.37048  21690414.007    21690412.9604   21690421.2554
        -0.000          -0.000
 -26717878.403 9 -20804263.14449  20223272.048    20223271.2214   20223277.9694
        -0.000          -0.000
  -5455707.395 9  -4234269.49146  23862084.457    23862084.1734   23862093.1274
        -0.000          -0.000
 -19204638.630 9 -13646881.99348  21365554.764    21365554.2544   21365561.7534
        -0.000          -0.000
 -21238891.225 9 -16528114.30548  21535829.156    21535829.1064   21535836.1504
        -0.000          -0.000
 -11533974.481 9  -8745225.01446  23582038.763    23582038.3454   23582047.9304
        -0.000          -0.000
 01  1 21  0 59  0.0000000  0  7  9 10  5  4 24 30  6               -0.000000010
  -8078648.386 9  -6271368.48647  23602811.094    23602810.6244   23602820.1684
        -0.000          -0.000
 -19143432.933 9 -14904199.43248  21677512.571    21677511.4614   21677519.7754
        -0.000          -0.000
 -26734174.821 9 -20816961.63049  20220170.894    20220170.0884   20220176.8644
        -0.000          -0.000
  -5356752.372 9  -4157161.76046  23880915.007    23880914.7764   23880923.9224
        -0.000          -0.000
 -19141210.214 9 -13597457.25948  21377624.828    21377624.2794   21377631.8144
        -0.000          -0.000
 -21311310.709 9 -16584544.99548  21522048.141    21522048.0574   21522055.1444
        -0.000          -0.000
 -11593256.027 9  -8791418.30046  23570757.750    23570757.2944   23570767.0454
        -0.000          -0.000
 01  1 21  0 59 30.0000000  0  7  9 10  5  4 24 30  6               -0.000000010
  -7991079.337 9  -6203132.96246  23619475.063    23619474.5484   23619484.1114
        -0.000          -0.000
 -19210820.751 9 -14956709.36148  21664689.003    21664687.8994   21664696.2134
        -0.000          -0.000
 -26749975.319 9 -20829273.69049  20217164.135    20217163.3194   20217170.0984
        -0.000          -0.000
  -5257791.248 9  -4080049.23946  23899746.917    23899746.6794   23899755.7434
        -0.000          -0.000
 -19077525.264 9 -13547832.62548  21389743.640    21389743.1294   21389750.6334
        -0.000          -0.000
 -21383395.723 9 -16640715.06848  21508330.741    21508330.6934   21508337.7634
        -0.000          -0.000
 -11652536.349 9  -8837610.62046  23559476.849    23559476.3744   23559486.3704
        -0.000          -0.000
 01  1 21  1  0  0.0000000  0  7  9 10  5  4 24 30  6               -0.000000010
  -7903470.719 9  -6134866.60646  23636146.535    23636146.0264   23636155.5254
        -0.000          -0.000
 -19277795.931 9 -15008897.74348  21651944.025    21651942.8924   21651951.2014
        -0.000          -0.000
 -26765278.595 9 -20841198.29749  20214251.997    20214251.1954   20214257.9714
        -0.000          -0.000
  -5158825.855 9  -4002933.34845  23918579.535    23918579.2924   23918588.0784
        -0.000          -0.000
 -19013586.549 9 -13498010.25448  21401910.764    21401910.2664   21401917.7794
        -0.000          -0.000
 -21455143.597 9 -16696622.42948  21494677.505    21494677.4644   21494684.5204
        -0.000          -0.000
 -11711815.393 9  -8883801.93946  23548196.121    23548195.6744   23548205.8674
        -0.000          -0.000
 01  1 21  1  0 30.0000000  0  7  9 10  5  4 24 30  6               -0.000000010
  -7815825.079 9  -6066571.40246  23652824.989    23652824.5404   23652833.9824
        -0.000          -0.000
 -19344355.190 9 -15060762.03648  21639278.162    21639277.0604   21639285.3174
        -0.000          -0.000
 -26780082.938 9 -20852734.12749  20211434.816    20211433.9954   20211440.7594
        -0.000          -0.000
  -5059857.554 8  -3925815.20645  23937412.497    23937412.1654   23937421.1534
        -0.000          -0.000
 -18949395.122 9 -13447990.96648  21414125.972    21414125.4594   21414132.9964
        -0.000          -0.000
 -21526551.237 9 -16752264.67348  21481089.066    21481089.0124   21481096.0634
        -0.000          -0.000
 -11771092.913 9  -8929992.08846  23536915.705    23536915.2734   23536925.6274
        -0.000          -0.000
 01  1 21  1  1  0.0000000  0  8  9 17 10  5  4 24 30  6            -0.000000010
  -7728145.274 9  -5998249.57646  23669509.964    23669509.4894   23669518.9784
        -0.000          -0.000
   -997044.492 8   -759584.81952         0.000           0.0004          0.0005
        -0.000          -0.000
 -19410495.715 9 -15112300.04448  21626691.938    21626690.8544   21626699.1104
        -0.000          -0.000
 -26794387.064 9 -20863880.17749  20208712.821    20208712.0004   20208718.7644
        -0.000          -0.000
  -4960888.463 9  -3848696.52145  23956245.588    23956245.3064   23956254.4624
        -0.000          -0.000
 -18884954.055 9 -13397777.14748  21426388.723    21426388.2204   21426395.7024
        -0.000          -0.000
 -21597616.445 9 -16807640.08648  21467565.770    21467565.6844   21467572.7024
        -0.000          -0.000
 -11830369.256 9  -8976181.32746  23525635.721    23525635.3314   23525645.6334
        -0.000          -0.000
 01  1 21  1  1 30.0000000  0  7  9 10  5  4 24 30  6               -0.000000010
  -7640435.413 9  -5929904.32146  23686200.580    23686200.1254   23686209.6884
        -0.000          -0.000
 -19476215.850 9 -15163510.47348  21614185.740    21614184.6914   21614192.9084
        -0.000          -0.000
 -26808191.302 9 -20874636.70949  20206085.938    20206085.1184   20206091.8954
        -0.000          -0.000
  -4861921.849 9  -3771579.69246  23975078.429    23975078.1594   23975087.2554
        -0.000          -0.000
 -18820267.054 9 -13347371.69548  21438698.235    21438697.7684   21438705.2464
        -0.000          -0.000
 -21668338.020 9 -16862747.72748  21454107.821    21454107.7604   21454114.7724
        -0.000          -0.000
 -11889646.016 9  -9022370.88946  23514355.850    23514355.4414   23514365.4674
        -0.000          -0.000
 01  1 21  1  2  0.0000000  0  8  9 17 10  5  4 24 30  6            -0.000000009
  -7552697.002 9  -5861536.83146  23702896.719    23702896.2574   23702905.8494
        -0.000          -0.000
  -1182201.409 9   -604234.71542         0.000           0.0004          0.0004
        -0.000          -0.000
 -19541511.287 9 -15214389.97448  21601760.380    21601759.3334   21601767.5334
        -0.000          -0.000
 -26821493.058 9 -20885001.69349  20203554.655    20203553.8314   20203560.6024
        -0.000          -0.000
  -4762958.375 9  -3694465.29446  23993910.757    23993910.5414   23993919.2794
        -0.000          -0.000
 -18755334.865 9 -13296775.18648  21451054.442    21451053.9744   21451061.4284
        -0.000          -0.000
 -21738712.160 9 -16917584.64848  21440716.022    21440715.9814   21440722.9114
        -0.000          -0.000
 -11948921.757 9  -9068559.66646  23503076.076    23503075.6094   23503085.5274
        -0.000          -0.000
 01  1 21  1  2 30.0000000  0  7  9 10  5  4 24 30  6               -0.000000010
  -7464933.375 9  -5793149.70346  23719597.661    23719597.2144   23719606.8444
        -0.000          -0.000
 -19606379.964 9 -15264936.93548  21589416.281    21589415.1894   21589423.3674
        -0.000          -0.000
 -26834291.793 9 -20894974.71249  20201119.121    20201118.3074   20201125.0704
        -0.000          -0.000
  -4664000.545 8  -3617355.34645  24012741.837    24012741.4964   24012750.4014
        -0.000          -0.000
 -18690160.799 9 -13245990.20248  21463456.653    21463456.1494   21463463.6304
        -0.000          -0.000
 -21808736.979 9 -16972149.37248  21427390.749    21427390.6864   21427397.5714
        -0.000          -0.000
 -12008197.431 9  -9114748.38346  23491796.182    23491795.7784   23491805.6634
        -0.000          -0.000
 01  1 21  1  3  0.0000000  0  8  9 17 10  5  4 24 30  6            -0.000000009
  -7377145.106 9  -5724743.35946  23736303.251    23736302.7994   23736312.4884
        -0.000          -0.000
  -1366847.002 8   -748112.51752         0.000           0.0004          0.0005
        -0.000          -0.000
 -19670816.643 9 -15315147.28248  21577154.322    21577153.2284   21577161.4044
        -0.000          -0.000
 -26846584.376 9 -20904553.32749  20198779.911    20198779.1064   20198785.8344
        -0.000          -0.000
  -4565047.882 9  -3540249.43245  24031571.719    24031571.4594   24031580.4124
        -0.000          -0.000
 -18624744.804 9 -13195016.69648  21475904.897    21475904.4014   21475911.8824
        -0.000          -0.000
 -21878407.644 9 -17026438.13448  21414132.795    21414132.7544   21414139.5384
        -0.000          -0.000
 -12067470.916 9  -9160935.38946  23480516.752    23480516.3074   23480526.1484
        -0.000          -0.000
 01  1 21  1  3 30.0000000  0  8  9 17 10  5  4 24 30  6            -0.000000008
  -7289337.484 9  -5656321.92946  23753012.554    23753012.1024   23753021.8284
        -0.000          -0.000
  -1458974.85618   -819899.21245         0.000           0.0005   25375752.9754
        -0.000          -0.000
 -19734821.128 9 -15365020.84148  21564974.652    21564973.5504   21564981.7054
        -0.000          -0.000
 -26858371.999 9 -20913738.45749  20196536.771    20196535.9494   20196542.7244
        -0.000          -0.000
  -4466104.784 9  -3463150.93045  24050400.057    24050399.8954   24050408.7404
        -0.000          -0.000
 -18559091.607 9 -13143858.35148  21488398.286    21488397.8024   21488405.2524
        -0.000          -0.000
 -21947724.280 9 -17080451.00848  21400942.244    21400942.1664   21400949.0014
        -0.000          -0.000
 -12126744.845 9  -9207122.73446  23469237.130    23469236.6764   23469246.5394
        -0.000          -0.000
 01  1 21  1  4  0.0000000  0  8  9 17 10  5  4 24 30  6            -0.000000009
  -7201514.501 9  -5587888.52646  23769724.802    23769724.3224   23769734.1114
        -0.000          -0.000
  -1550973.180 8   -891585.19045  25358228.653    25358226.6554   25358246.2634
        -0.000          -0.000
 -19798391.543 9 -15414556.17448  21552877.586    21552876.4544   21552884.6194
        -0.000          -0.000
 -26869654.505 9 -20922529.99449  20194389.764    20194388.9354   20194395.7134
        -0.000          -0.000
  -4367174.299 9  -3386062.23846  24069226.035    24069225.8024   24069234.6544
        -0.000          -0.000
 -18493204.894 9 -13092518.04848  21500936.146    21500935.6424   21500943.1214
        -0.000          -0.000
 -22016685.610 9 -17134187.03448  21387819.245    21387819.1814   21387825.9684
        -0.000          -0.000
 -12186020.368 9  -9253311.33546  23457957.123    23457956.6454   23457966.5594
        -0.000          -0.000
 01  1 21  1  4 30.0000000  0  8  9 17 10  5  4 24 30  6            -0.000000009
  -7113676.826 9  -5519443.68146  23786439.896    23786439.4404   23786449.2194
        -0.000          -0.000
  -1642838.485 8   -963167.38045  25340746.898    25340745.6084   25340763.6064
        -0.000          -0.000
 -19861523.354 9 -15463749.74548  21540863.949    21540862.8114   21540870.9684
        -0.000          -0.000
 -26880428.718 9 -20930925.46049  20192339.447    20192338.6154   20192345.4084
        -0.000          -0.000
  -4268255.963 9  -3308983.02846  24088049.601    24088049.4404   24088058.3344
        -0.000          -0.000
 -18427084.870 9 -13040995.94348  21513518.347    21513517.8224   21513525.3484
        -0.000          -0.000
 -22085286.918 9 -17187642.51148  21374764.807    21374764.7484   21374771.5784
        -0.000          -0.000
 -12245295.571 9  -9299499.67946  23446677.244    23446676.7934   23446686.6164
        -0.000          -0.000
 01  1 21  1  5  0.0000000  0  8  9 17 10  5  4 24 30  6            -0.000000010
  -7025829.139 9  -5450991.05146  23803156.843    23803156.3684   23803166.2104
        -0.000          -0.000
  -1734571.410 8  -1034646.71845  25323290.357    25323287.8134   25323306.6074
        -0.000          -0.000
 -19924215.723 9 -15512600.89748  21528933.942    21528932.8104   21528940.9564
        -0.000          -0.000
 -26890695.843 9 -20938925.79549  20190385.658    20190384.8184   20190391.6104
        -0.000          -0.000
  -4169353.748 9  -3231916.40445  24106869.975    24106869.7724   24106878.7654
        -0.000          -0.000
 -18360735.705 9 -12989295.29648  21526144.113    21526143.5914   21526151.1474
        -0.000          -0.000
 -22153527.409 9 -17240816.83948  21361779.026    21361778.9294   21361785.7684
        -0.000          -0.000
 -12304572.418 9  -9345689.33146  23435397.394    23435396.9224   23435406.4164
        -0.000          -0.000
 01  1 21  1  5 30.0000000  0  8  9 17 10  5  4 24 30  6            -0.000000011
  -6937970.896 9  -5382530.19646  23819875.759    23819875.2644   23819885.1724
        -0.000          -0.000
  -1826167.606 8  -1106019.36245  25305859.735    25305857.5104   25305876.3814
        -0.000          -0.000
 -19986462.521 9 -15561104.85048  21517088.735    21517087.6004   21517095.7534
        -0.000          -0.000
 -26900451.458 9 -20946527.55549  20188529.207    20188528.3834   20188535.1684
        -0.000          -0.000
  -4070466.284 9  -3154861.27845  24125687.568    24125687.3644   24125696.5144
        -0.000          -0.000
 -18294156.565 9 -12937415.44348  21538813.726    21538813.2104   21538820.7554
        -0.000          -0.000
 -22221401.515 9 -17293705.69048  21348862.967    21348862.9004   21348869.6174
        -0.000          -0.000
 -12363847.809 9  -9391877.84846  23424117.808    23424117.3014   23424126.6504
        -0.000          -0.000
 01  1 21  1  6  0.0000000  0  8  9 17 10  5  4 24 30  6            -0.000000011
  -6850106.594 9  -5314064.61646  23836595.853    23836595.3384   23836605.3044
        -0.000          -0.000
  -1917627.440 8  -1177286.04545  25288454.837    25288452.9784   25288471.5024
        -0.000          -0.000
 -20048262.692 9 -15609260.78548  21505328.495    21505327.3624   21505335.5144
        -0.000          -0.000
 -26909696.137 9 -20953731.18849  20186769.995    20186769.1804   20186775.9384
        -0.000          -0.000
  -3971596.850 9  -3077820.19346  24144501.868    24144501.6894   24144510.7784
        -0.000          -0.000
 -18227351.645 9 -12885359.67248  21551526.215    21551525.7294   21551533.3034
        -0.000          -0.000
 -22288908.828 9 -17346308.70948  21336016.656    21336016.5934   21336023.3554
        -0.000          -0.000
 -12423123.599 9  -9438066.64447  23412838.023    23412837.4704   23412846.8534
        -0.000          -0.000
